Wetterdaten: Samstag, 10.11.2018
Datum Zeit Temp. Aussen Temp. o. S. +5cm Feuchte Auss Luftdruck Regen Sonnenschein Regendauer Solar Windben Empfang
10.11.2018 00:00 11,1 C 10,0 C 9,4 C 89 % 1005,1 hPa 0,0 l/m 0 min 0 min 0 W/m 12,9 km/h (3 Bft) 95,74 %
10.11.2018 00:02 11,1 C 10,0 C 9,4 C 89 % 1005,1 hPa 0,0 l/m 0 min 0 min 0 W/m 12,9 km/h (3 Bft) 92,86 %
10.11.2018 00:04 11,0 C 10,0 C 9,4 C 89 % 1005,0 hPa 0,0 l/m 0 min 0 min 0 W/m 6,4 km/h (2 Bft) 93,62 %
10.11.2018 00:08 10,9 C 10,0 C 9,4 C 89 % 1005,0 hPa 0,0 l/m 0 min 0 min 0 W/m 9,7 km/h (2 Bft) 95,74 %
10.11.2018 00:10 10,9 C 10,0 C 9,4 C 89 % 1005,0 hPa 0,0 l/m 0 min 0 min 0 W/m 6,4 km/h (2 Bft) 93,62 %
10.11.2018 00:12 10,9 C 10,0 C 9,4 C 90 % 1005,0 hPa 0,0 l/m 0 min 0 min 0 W/m 9,7 km/h (2 Bft) 95,74 %
10.11.2018 00:14 10,9 C 10,0 C 9,4 C 89 % 1004,9 hPa 0,0 l/m 0 min 0 min 0 W/m 16,1 km/h (3 Bft) 95,65 %
10.11.2018 00:16 10,9 C 10,0 C 9,4 C 89 % 1004,9 hPa 0,0 l/m 0 min 0 min 0 W/m 16,1 km/h (3 Bft) 95,74 %
10.11.2018 00:18 10,8 C 10,0 C 9,4 C 90 % 1004,8 hPa 0,0 l/m 0 min 0 min 0 W/m 9,7 km/h (2 Bft) 95,74 %
10.11.2018 00:20 10,8 C 10,0 C 9,4 C 90 % 1004,8 hPa 0,0 l/m 0 min 0 min 0 W/m 9,7 km/h (2 Bft) 93,62 %
10.11.2018 00:22 10,8 C 10,0 C 9,4 C 90 % 1004,7 hPa 0,0 l/m 0 min 0 min 0 W/m 16,1 km/h (3 Bft) 93,62 %
10.11.2018 00:24 10,8 C 10,0 C 9,4 C 90 % 1004,7 hPa 0,0 l/m 0 min 0 min 0 W/m 9,7 km/h (2 Bft) 95,74 %
10.11.2018 00:26 10,8 C 10,0 C 9,4 C 90 % 1004,7 hPa 0,0 l/m 0 min 0 min 0 W/m 12,9 km/h (3 Bft) 93,48 %
10.11.2018 00:28 10,8 C 10,0 C 9,4 C 90 % 1004,8 hPa 0,0 l/m 0 min 0 min 0 W/m 9,7 km/h (2 Bft) 97,87 %
10.11.2018 00:30 10,8 C 10,0 C 9,4 C 90 % 1004,7 hPa 0,0 l/m 0 min 0 min 0 W/m 19,3 km/h (3 Bft) 97,87 %
10.11.2018 00:32 10,8 C 10,0 C 9,4 C 90 % 1004,7 hPa 0,0 l/m 0 min 0 min 0 W/m 12,9 km/h (3 Bft) 97,87 %
10.11.2018 00:34 10,7 C 10,0 C 9,4 C 90 % 1004,6 hPa 0,0 l/m 0 min 0 min 0 W/m 12,9 km/h (3 Bft) 95,74 %
10.11.2018 00:36 10,7 C 10,0 C 9,4 C 90 % 1004,6 hPa 0,0 l/m 0 min 0 min 0 W/m 12,9 km/h (3 Bft) 95,74 %
10.11.2018 00:38 10,7 C 10,0 C 9,4 C 90 % 1004,6 hPa 0,0 l/m 0 min 0 min 0 W/m 16,1 km/h (3 Bft) 100,00 %
10.11.2018 00:40 10,7 C 10,0 C 9,4 C 90 % 1004,5 hPa 0,0 l/m 0 min 0 min 0 W/m 12,9 km/h (3 Bft) 97,83 %
10.11.2018 00:42 10,7 C 10,0 C 9,4 C 90 % 1004,5 hPa 0,0 l/m 0 min 0 min 0 W/m 16,1 km/h (3 Bft) 95,74 %
10.11.2018 00:44 10,7 C 10,0 C 9,4 C 90 % 1004,4 hPa 0,0 l/m 0 min 0 min 0 W/m 12,9 km/h (3 Bft) 95,74 %
10.11.2018 00:46 10,7 C 10,0 C 9,4 C 90 % 1004,4 hPa 0,0 l/m 0 min 0 min 0 W/m 16,1 km/h (3 Bft) 97,87 %
10.11.2018 00:48 10,7 C 10,0 C 9,4 C 90 % 1004,4 hPa 0,0 l/m 0 min 0 min 0 W/m 12,9 km/h (3 Bft) 95,74 %
10.11.2018 00:50 10,7 C 10,0 C 9,4 C 90 % 1004,4 hPa 0,0 l/m 0 min 0 min 0 W/m 16,1 km/h (3 Bft) 97,87 %
10.11.2018 00:52 10,7 C 10,0 C 9,4 C 90 % 1004,3 hPa 0,0 l/m 0 min 0 min 0 W/m 16,1 km/h (3 Bft) 97,83 %
10.11.2018 00:54 10,7 C 10,0 C 9,4 C 90 % 1004,3 hPa 0,0 l/m 0 min 0 min 0 W/m 22,5 km/h (4 Bft) 97,87 %
10.11.2018 00:56 10,7 C 10,0 C 9,4 C 90 % 1004,3 hPa 0,0 l/m 0 min 0 min 0 W/m 16,1 km/h (3 Bft) 97,87 %
10.11.2018 00:58 10,7 C 10,0 C 9,4 C 90 % 1004,2 hPa 0,0 l/m 0 min 0 min 0 W/m 19,3 km/h (3 Bft) 97,87 %
10.11.2018 01:00 10,7 C 10,0 C 9,4 C 90 % 1004,3 hPa 0,0 l/m 0 min 0 min 0 W/m 12,9 km/h (3 Bft) 97,87 %
10.11.2018 01:02 10,7 C 10,0 C 9,4 C 90 % 1004,3 hPa 0,0 l/m 0 min 0 min 0 W/m 12,9 km/h (3 Bft) 95,65 %
10.11.2018 01:04 10,7 C 10,0 C 9,4 C 90 % 1004,2 hPa 0,0 l/m 0 min 0 min 0 W/m 25,7 km/h (4 Bft) 97,87 %
10.11.2018 01:06 10,7 C 10,0 C 9,4 C 90 % 1004,2 hPa 0,0 l/m 0 min 0 min 0 W/m 12,9 km/h (3 Bft) 97,87 %
10.11.2018 01:08 10,7 C 10,0 C 9,4 C 90 % 1004,2 hPa 0,0 l/m 0 min 0 min 0 W/m 19,3 km/h (3 Bft) 97,87 %
10.11.2018 01:10 10,6 C 10,0 C 9,4 C 90 % 1004,2 hPa 0,0 l/m 0 min 0 min 0 W/m 22,5 km/h (4 Bft) 97,87 %
10.11.2018 01:12 10,7 C 10,0 C 9,4 C 90 % 1004,2 hPa 0,0 l/m 0 min 0 min 0 W/m 25,7 km/h (4 Bft) 97,87 %
10.11.2018 01:14 10,6 C 10,0 C 9,4 C 90 % 1004,1 hPa 0,0 l/m 0 min 0 min 0 W/m 16,1 km/h (3 Bft) 95,65 %
10.11.2018 01:16 10,6 C 10,0 C 9,4 C 90 % 1004,1 hPa 0,0 l/m 0 min 0 min 0 W/m 22,5 km/h (4 Bft) 95,74 %
10.11.2018 01:18 10,6 C 10,0 C 9,4 C 90 % 1004,1 hPa 0,0 l/m 0 min 0 min 0 W/m 25,7 km/h (4 Bft) 97,87 %
10.11.2018 01:20 10,6 C 10,0 C 9,4 C 90 % 1004,0 hPa 0,0 l/m 0 min 0 min 0 W/m 19,3 km/h (3 Bft) 95,74 %
10.11.2018 01:22 10,6 C 10,0 C 9,4 C 90 % 1004,0 hPa 0,0 l/m 0 min 0 min 0 W/m 16,1 km/h (3 Bft) 97,87 %
10.11.2018 01:24 10,6 C 10,0 C 9,4 C 90 % 1004,0 hPa 0,0 l/m 0 min 0 min 0 W/m 16,1 km/h (3 Bft) 97,87 %
10.11.2018 01:26 10,6 C 10,0 C 9,4 C 90 % 1004,0 hPa 0,0 l/m 0 min 0 min 0 W/m 16,1 km/h (3 Bft) 97,83 %
10.11.2018 01:28 10,6 C 10,0 C 9,4 C 90 % 1004,0 hPa 0,0 l/m 0 min 0 min 0 W/m 16,1 km/h (3 Bft) 100,00 %
10.11.2018 01:30 10,6 C 10,0 C 9,4 C 90 % 1004,0 hPa 0,0 l/m 0 min 0 min 0 W/m 9,7 km/h (2 Bft) 97,87 %
10.11.2018 01:32 10,6 C 10,0 C 9,4 C 90 % 1003,9 hPa 0,0 l/m 0 min 0 min 0 W/m 16,1 km/h (3 Bft) 95,74 %
10.11.2018 01:34 10,6 C 10,0 C 9,4 C 90 % 1003,9 hPa 0,0 l/m 0 min 0 min 0 W/m 22,5 km/h (4 Bft) 100,00 %
10.11.2018 01:36 10,6 C 10,0 C 9,4 C 90 % 1003,8 hPa 0,0 l/m 0 min 0 min 0 W/m 19,3 km/h (3 Bft) 100,00 %
10.11.2018 01:38 10,6 C 10,0 C 9,4 C 90 % 1003,9 hPa 0,0 l/m 0 min 0 min 0 W/m 9,7 km/h (2 Bft) 100,00 %
10.11.2018 01:40 10,6 C 10,0 C 9,4 C 90 % 1003,8 hPa 0,0 l/m 0 min 0 min 0 W/m 25,7 km/h (4 Bft) 97,87 %
10.11.2018 01:42 10,6 C 10,0 C 9,4 C 90 % 1003,8 hPa 0,0 l/m 0 min 0 min 0 W/m 16,1 km/h (3 Bft) 97,87 %
10.11.2018 01:44 10,6 C 10,0 C 9,4 C 90 % 1003,8 hPa 0,0 l/m 0 min 0 min 0 W/m 16,1 km/h (3 Bft) 100,00 %
10.11.2018 01:46 10,6 C 10,0 C 9,4 C 90 % 1003,8 hPa 0,0 l/m 0 min 0 min 0 W/m 12,9 km/h (3 Bft) 100,00 %
10.11.2018 01:48 10,6 C 10,0 C 9,4 C 90 % 1003,7 hPa 0,0 l/m 0 min 0 min 0 W/m 22,5 km/h (4 Bft) 100,00 %
10.11.2018 01:50 10,6 C 10,0 C 9,4 C 90 % 1003,8 hPa 0,0 l/m 0 min 0 min 0 W/m 29,0 km/h (5 Bft) 100,00 %
10.11.2018 01:52 10,6 C 10,0 C 9,4 C 90 % 1003,7 hPa 0,0 l/m 0 min 0 min 0 W/m 22,5 km/h (4 Bft) 95,74 %
10.11.2018 01:54 10,6 C 10,0 C 9,4 C 90 % 1003,7 hPa 0,0 l/m 0 min 0 min 0 W/m 16,1 km/h (3 Bft) 100,00 %
10.11.2018 01:56 10,6 C 10,0 C 9,4 C 90 % 1003,7 hPa 0,0 l/m 0 min 0 min 0 W/m 16,1 km/h (3 Bft) 100,00 %
10.11.2018 01:58 10,7 C 10,0 C 9,4 C 90 % 1003,6 hPa 0,0 l/m 0 min 0 min 0 W/m 22,5 km/h (4 Bft) 95,74 %
10.11.2018 02:00 10,7 C 10,0 C 9,4 C 90 % 1003,6 hPa 0,0 l/m 0 min 0 min 0 W/m 22,5 km/h (4 Bft) 100,00 %
10.11.2018 02:02 10,7 C 10,6 C 9,4 C 90 % 1003,6 hPa 0,0 l/m 0 min 0 min 0 W/m 22,5 km/h (4 Bft) 100,00 %
10.11.2018 02:04 10,7 C 10,0 C 9,4 C 89 % 1003,6 hPa 0,0 l/m 0 min 0 min 0 W/m 25,7 km/h (4 Bft) 100,00 %
10.11.2018 02:06 10,7 C 10,0 C 9,4 C 89 % 1003,6 hPa 0,0 l/m 0 min 0 min 0 W/m 22,5 km/h (4 Bft) 100,00 %
10.11.2018 02:08 10,7 C 10,0 C 9,4 C 89 % 1003,6 hPa 0,0 l/m 0 min 0 min 0 W/m 16,1 km/h (3 Bft) 100,00 %
10.11.2018 02:10 10,7 C 10,6 C 9,4 C 89 % 1003,6 hPa 0,0 l/m 0 min 0 min 0 W/m 19,3 km/h (3 Bft) 100,00 %
10.11.2018 02:12 10,8 C 10,6 C 9,4 C 89 % 1003,6 hPa 0,0 l/m 0 min 0 min 0 W/m 29,0 km/h (5 Bft) 100,00 %
10.11.2018 02:14 10,8 C 10,6 C 9,4 C 89 % 1003,6 hPa 0,0 l/m 0 min 0 min 0 W/m 19,3 km/h (3 Bft) 100,00 %
10.11.2018 02:16 10,8 C 10,6 C 9,4 C 89 % 1003,5 hPa 0,0 l/m 0 min 0 min 0 W/m 16,1 km/h (3 Bft) 97,87 %
10.11.2018 02:18 10,8 C 10,0 C 9,4 C 89 % 1003,4 hPa 0,0 l/m 0 min 0 min 0 W/m 16,1 km/h (3 Bft) 97,87 %
10.11.2018 02:20 10,8 C 10,0 C 9,4 C 89 % 1003,5 hPa 0,0 l/m 0 min 0 min 0 W/m 19,3 km/h (3 Bft) 100,00 %
10.11.2018 02:22 10,8 C 10,6 C 9,4 C 89 % 1003,4 hPa 0,0 l/m 0 min 0 min 0 W/m 22,5 km/h (4 Bft) 100,00 %
10.11.2018 02:24 10,8 C 10,0 C 9,4 C 89 % 1003,5 hPa 0,0 l/m 0 min 0 min 0 W/m 12,9 km/h (3 Bft) 95,65 %
10.11.2018 02:26 10,8 C 10,0 C 9,4 C 89 % 1003,4 hPa 0,0 l/m 0 min 0 min 0 W/m 9,7 km/h (2 Bft) 97,87 %
10.11.2018 02:28 10,8 C 10,0 C 9,4 C 89 % 1003,4 hPa 0,0 l/m 0 min 0 min 0 W/m 9,7 km/h (2 Bft) 97,87 %
10.11.2018 02:30 10,8 C 10,0 C 9,4 C 89 % 1003,4 hPa 0,0 l/m 0 min 0 min 0 W/m 19,3 km/h (3 Bft) 97,87 %
10.11.2018 02:32 10,8 C 10,0 C 9,4 C 89 % 1003,3 hPa 0,0 l/m 0 min 0 min 0 W/m 9,7 km/h (2 Bft) 95,74 %
10.11.2018 02:34 10,8 C 10,0 C 9,4 C 89 % 1003,3 hPa 0,0 l/m 0 min 0 min 0 W/m 9,7 km/h (2 Bft) 95,74 %
10.11.2018 02:36 10,8 C 10,0 C 9,4 C 89 % 1003,3 hPa 0,0 l/m 0 min 0 min 0 W/m 12,9 km/h (3 Bft) 95,65 %
10.11.2018 02:38 10,8 C 10,0 C 9,4 C 89 % 1003,2 hPa 0,0 l/m 0 min 0 min 0 W/m 16,1 km/h (3 Bft) 95,74 %
10.11.2018 02:40 10,8 C 10,0 C 9,4 C 89 % 1003,1 hPa 0,0 l/m 0 min 0 min 0 W/m 19,3 km/h (3 Bft) 91,49 %
10.11.2018 02:42 10,8 C 10,0 C 9,4 C 89 % 1003,1 hPa 0,0 l/m 0 min 0 min 0 W/m 16,1 km/h (3 Bft) 95,74 %
10.11.2018 02:44 10,8 C 10,0 C 9,4 C 89 % 1003,1 hPa 0,0 l/m 0 min 0 min 0 W/m 9,7 km/h (2 Bft) 95,74 %
10.11.2018 02:46 10,8 C 10,6 C 9,4 C 89 % 1003,1 hPa 0,0 l/m 0 min 0 min 0 W/m 16,1 km/h (3 Bft) 90,48 %
10.11.2018 02:48 10,8 C 10,6 C 9,4 C 89 % 1003,0 hPa 0,0 l/m 0 min 0 min 0 W/m 16,1 km/h (3 Bft) 91,30 %
10.11.2018 02:50 10,8 C 10,6 C 9,4 C 89 % 1003,0 hPa 0,0 l/m 0 min 0 min 0 W/m 19,3 km/h (3 Bft) 95,74 %
10.11.2018 02:52 10,8 C 10,6 C 9,4 C 89 % 1003,0 hPa 0,0 l/m 0 min 0 min 0 W/m 12,9 km/h (3 Bft) 95,74 %
10.11.2018 02:54 10,8 C 10,6 C 9,4 C 89 % 1003,0 hPa 0,0 l/m 0 min 0 min 0 W/m 22,5 km/h (4 Bft) 95,74 %
10.11.2018 02:56 10,9 C 10,6 C 10,0 C 89 % 1002,9 hPa 0,0 l/m 0 min 0 min 0 W/m 29,0 km/h (5 Bft) 95,74 %
10.11.2018 02:58 10,9 C 10,6 C 10,0 C 89 % 1002,9 hPa 0,0 l/m 0 min 0 min 0 W/m 16,1 km/h (3 Bft) 95,65 %
10.11.2018 03:00 10,9 C 10,6 C 10,0 C 89 % 1002,9 hPa 0,0 l/m 0 min 0 min 0 W/m 16,1 km/h (3 Bft) 91,49 %
10.11.2018 03:02 10,9 C 10,6 C 10,0 C 89 % 1002,9 hPa 0,0 l/m 0 min 0 min 0 W/m 9,7 km/h (2 Bft) 93,75 %
10.11.2018 03:04 10,9 C 10,6 C 10,0 C 89 % 1002,9 hPa 0,0 l/m 0 min 0 min 0 W/m 22,5 km/h (4 Bft) 95,74 %
10.11.2018 03:06 11,0 C 10,6 C 10,0 C 89 % 1002,9 hPa 0,0 l/m 0 min 0 min 0 W/m 22,5 km/h (4 Bft) 95,74 %
10.11.2018 03:08 11,0 C 10,6 C 10,0 C 88 % 1002,8 hPa 0,0 l/m 0 min 0 min 0 W/m 25,7 km/h (4 Bft) 95,74 %
10.11.2018 03:10 11,1 C 10,6 C 10,0 C 88 % 1002,7 hPa 0,0 l/m 0 min 0 min 0 W/m 19,3 km/h (3 Bft) 95,65 %
10.11.2018 03:12 11,1 C 10,6 C 10,0 C 88 % 1002,7 hPa 0,0 l/m 0 min 0 min 0 W/m 19,3 km/h (3 Bft) 95,74 %
10.11.2018 03:14 11,1 C 10,6 C 10,0 C 88 % 1002,8 hPa 0,0 l/m 0 min 0 min 0 W/m 22,5 km/h (4 Bft) 97,87 %
10.11.2018 03:16 11,1 C 10,6 C 10,0 C 88 % 1002,7 hPa 0,0 l/m 0 min 0 min 0 W/m 19,3 km/h (3 Bft) 95,74 %
10.11.2018 03:18 11,2 C 11,1 C 10,0 C 88 % 1002,7 hPa 0,0 l/m 0 min 0 min 0 W/m 19,3 km/h (3 Bft) 97,87 %
10.11.2018 03:20 11,2 C 11,1 C 10,0 C 88 % 1002,7 hPa 0,0 l/m 0 min 0 min 0 W/m 22,5 km/h (4 Bft) 97,87 %
10.11.2018 03:22 11,2 C 11,1 C 10,0 C 88 % 1002,6 hPa 0,0 l/m 0 min 0 min 0 W/m 19,3 km/h (3 Bft) 97,83 %
10.11.2018 03:24 11,2 C 11,1 C 10,0 C 88 % 1002,6 hPa 0,0 l/m 0 min 0 min 0 W/m 22,5 km/h (4 Bft) 97,87 %
10.11.2018 03:26 11,2 C 11,1 C 10,0 C 88 % 1002,5 hPa 0,0 l/m 0 min 0 min 0 W/m 12,9 km/h (3 Bft) 95,74 %
10.11.2018 03:28 11,3 C 10,6 C 10,0 C 88 % 1002,5 hPa 0,0 l/m 0 min 0 min 0 W/m 16,1 km/h (3 Bft) 97,87 %
10.11.2018 03:30 11,3 C 10,6 C 10,0 C 88 % 1002,5 hPa 0,0 l/m 0 min 0 min 0 W/m 25,7 km/h (4 Bft) 100,00 %
10.11.2018 03:32 11,3 C 11,1 C 10,0 C 88 % 1002,4 hPa 0,0 l/m 0 min 0 min 0 W/m 16,1 km/h (3 Bft) 100,00 %
10.11.2018 03:34 11,3 C 11,1 C 10,0 C 87 % 1002,4 hPa 0,0 l/m 0 min 0 min 0 W/m 19,3 km/h (3 Bft) 95,65 %
10.11.2018 03:36 11,3 C 11,1 C 10,0 C 87 % 1002,4 hPa 0,0 l/m 0 min 0 min 0 W/m 25,7 km/h (4 Bft) 100,00 %
10.11.2018 03:38 11,3 C 11,1 C 10,0 C 87 % 1002,3 hPa 0,0 l/m 0 min 0 min 0 W/m 25,7 km/h (4 Bft) 100,00 %
10.11.2018 03:40 11,3 C 11,1 C 10,0 C 87 % 1002,3 hPa 0,0 l/m 0 min 0 min 0 W/m 19,3 km/h (3 Bft) 100,00 %
10.11.2018 03:42 11,4 C 11,1 C 10,0 C 87 % 1002,2 hPa 0,0 l/m 0 min 0 min 0 W/m 12,9 km/h (3 Bft) 100,00 %
10.11.2018 03:44 11,4 C 11,1 C 10,0 C 87 % 1002,2 hPa 0,0 l/m 0 min 0 min 0 W/m 29,0 km/h (5 Bft) 100,00 %
10.11.2018 03:46 11,4 C 11,1 C 10,0 C 87 % 1002,2 hPa 0,0 l/m 0 min 0 min 0 W/m 16,1 km/h (3 Bft) 100,00 %
10.11.2018 03:48 11,4 C 11,1 C 10,6 C 87 % 1002,1 hPa 0,0 l/m 0 min 0 min 0 W/m 32,2 km/h (5 Bft) 100,00 %
10.11.2018 03:50 11,4 C 11,1 C 10,0 C 87 % 1002,1 hPa 0,0 l/m 0 min 0 min 0 W/m 22,5 km/h (4 Bft) 100,00 %
10.11.2018 03:52 11,4 C 11,1 C 10,0 C 87 % 1002,1 hPa 0,0 l/m 0 min 0 min 0 W/m 16,1 km/h (3 Bft) 100,00 %
10.11.2018 03:54 11,5 C 11,1 C 10,0 C 87 % 1002,1 hPa 0,0 l/m 0 min 0 min 0 W/m 16,1 km/h (3 Bft) 100,00 %
10.11.2018 03:56 11,5 C 11,1 C 10,0 C 86 % 1002,1 hPa 0,0 l/m 0 min 0 min 0 W/m 25,7 km/h (4 Bft) 100,00 %
10.11.2018 03:58 11,5 C 11,1 C 10,0 C 86 % 1002,0 hPa 0,0 l/m 0 min 0 min 0 W/m 25,7 km/h (4 Bft) 100,00 %
10.11.2018 04:00 11,5 C 11,1 C 10,0 C 86 % 1002,0 hPa 0,0 l/m 0 min 0 min 0 W/m 19,3 km/h (3 Bft) 97,87 %
10.11.2018 04:02 11,5 C 11,1 C 10,0 C 86 % 1002,0 hPa 0,0 l/m 0 min 0 min 0 W/m 16,1 km/h (3 Bft) 92,86 %
10.11.2018 04:04 11,5 C 11,1 C 10,0 C 86 % 1002,0 hPa 0,0 l/m 0 min 0 min 0 W/m 25,7 km/h (4 Bft) 100,00 %
10.11.2018 04:06 11,5 C 11,1 C 10,0 C 86 % 1001,9 hPa 0,0 l/m 0 min 0 min 0 W/m 22,5 km/h (4 Bft) 97,87 %
10.11.2018 04:08 11,6 C 11,1 C 10,0 C 86 % 1002,0 hPa 0,0 l/m 0 min 0 min 0 W/m 19,3 km/h (3 Bft) 100,00 %
10.11.2018 04:10 11,6 C 11,1 C 10,0 C 86 % 1002,0 hPa 0,0 l/m 0 min 0 min 0 W/m 19,3 km/h (3 Bft) 100,00 %
10.11.2018 04:12 11,6 C 11,1 C 10,6 C 86 % 1001,9 hPa 0,0 l/m 0 min 0 min 0 W/m 25,7 km/h (4 Bft) 95,74 %
10.11.2018 04:14 11,6 C 11,1 C 10,6 C 86 % 1001,9 hPa 0,0 l/m 0 min 0 min 0 W/m 29,0 km/h (5 Bft) 97,87 %
10.11.2018 04:16 11,6 C 11,1 C 10,6 C 86 % 1001,9 hPa 0,0 l/m 0 min 0 min 0 W/m 22,5 km/h (4 Bft) 97,87 %
10.11.2018 04:18 11,6 C 11,1 C 10,6 C 86 % 1001,8 hPa 0,0 l/m 0 min 0 min 0 W/m 25,7 km/h (4 Bft) 95,74 %
10.11.2018 04:20 11,6 C 11,1 C 10,6 C 86 % 1001,7 hPa 0,0 l/m 0 min 0 min 0 W/m 22,5 km/h (4 Bft) 97,83 %
10.11.2018 04:22 11,6 C 11,1 C 10,6 C 86 % 1001,6 hPa 0,0 l/m 0 min 0 min 0 W/m 19,3 km/h (3 Bft) 95,74 %
10.11.2018 04:24 11,6 C 11,1 C 10,6 C 86 % 1001,6 hPa 0,0 l/m 0 min 0 min 0 W/m 22,5 km/h (4 Bft) 97,87 %
10.11.2018 04:26 11,7 C 11,1 C 10,6 C 86 % 1001,5 hPa 0,0 l/m 0 min 0 min 0 W/m 16,1 km/h (3 Bft) 97,87 %
10.11.2018 04:28 11,7 C 11,1 C 10,6 C 86 % 1001,5 hPa 0,0 l/m 0 min 0 min 0 W/m 32,2 km/h (5 Bft) 95,74 %
10.11.2018 04:30 11,7 C 11,1 C 10,6 C 85 % 1001,4 hPa 0,0 l/m 0 min 0 min 0 W/m 25,7 km/h (4 Bft) 97,87 %
10.11.2018 04:32 11,7 C 11,1 C 10,6 C 85 % 1001,6 hPa 0,0 l/m 0 min 0 min 0 W/m 22,5 km/h (4 Bft) 93,62 %
10.11.2018 04:34 11,7 C 11,7 C 10,6 C 85 % 1001,5 hPa 0,0 l/m 0 min 0 min 0 W/m 29,0 km/h (5 Bft) 94,29 %
10.11.2018 04:36 11,7 C 11,7 C 10,6 C 85 % 1001,5 hPa 0,0 l/m 0 min 0 min 0 W/m 19,3 km/h (3 Bft) 94,92 %
10.11.2018 04:38 11,8 C 11,7 C 10,6 C 85 % 1001,4 hPa 0,0 l/m 0 min 0 min 0 W/m 16,1 km/h (3 Bft) 95,74 %
10.11.2018 04:40 11,8 C 11,7 C 10,6 C 85 % 1001,4 hPa 0,0 l/m 0 min 0 min 0 W/m 25,7 km/h (4 Bft) 97,87 %
10.11.2018 04:42 11,8 C 11,7 C 10,6 C 85 % 1001,4 hPa 0,0 l/m 0 min 0 min 0 W/m 29,0 km/h (5 Bft) 97,87 %
10.11.2018 04:44 11,9 C 11,7 C 10,6 C 85 % 1001,4 hPa 0,0 l/m 0 min 0 min 0 W/m 22,5 km/h (4 Bft) 97,83 %
10.11.2018 04:46 11,9 C 11,7 C 10,6 C 85 % 1001,4 hPa 0,0 l/m 0 min 0 min 0 W/m 25,7 km/h (4 Bft) 97,87 %
10.11.2018 04:48 11,9 C 11,7 C 11,1 C 85 % 1001,3 hPa 0,0 l/m 0 min 0 min 0 W/m 22,5 km/h (4 Bft) 97,87 %
10.11.2018 04:50 11,9 C 11,7 C 10,6 C 85 % 1001,3 hPa 0,0 l/m 0 min 0 min 0 W/m 16,1 km/h (3 Bft) 97,87 %
10.11.2018 04:52 12,0 C 11,7 C 11,1 C 84 % 1001,3 hPa 0,0 l/m 0 min 0 min 0 W/m 16,1 km/h (3 Bft) 97,87 %
10.11.2018 04:54 12,1 C 11,7 C 11,1 C 84 % 1001,3 hPa 0,0 l/m 0 min 0 min 0 W/m 19,3 km/h (3 Bft) 97,83 %
10.11.2018 04:56 12,1 C 11,7 C 11,1 C 84 % 1001,2 hPa 0,0 l/m 0 min 0 min 0 W/m 22,5 km/h (4 Bft) 95,74 %
10.11.2018 04:58 12,1 C 12,2 C 11,1 C 84 % 1001,2 hPa 0,0 l/m 0 min 0 min 0 W/m 22,5 km/h (4 Bft) 97,87 %
10.11.2018 05:00 12,2 C 12,2 C 11,1 C 84 % 1001,2 hPa 0,0 l/m 0 min 0 min 0 W/m 25,7 km/h (4 Bft) 100,00 %
10.11.2018 05:02 12,2 C 12,2 C 11,1 C 84 % 1001,2 hPa 0,0 l/m 0 min 0 min 0 W/m 22,5 km/h (4 Bft) 95,74 %
10.11.2018 05:04 12,3 C 12,2 C 11,1 C 84 % 1001,1 hPa 0,0 l/m 0 min 0 min 0 W/m 25,7 km/h (4 Bft) 100,00 %
10.11.2018 05:06 12,3 C 12,2 C 11,1 C 83 % 1001,1 hPa 0,0 l/m 0 min 0 min 0 W/m 22,5 km/h (4 Bft) 97,96 %
10.11.2018 05:08 12,3 C 12,2 C 11,1 C 83 % 1001,1 hPa 0,0 l/m 0 min 0 min 0 W/m 29,0 km/h (5 Bft) 97,87 %
10.11.2018 05:10 12,4 C 12,2 C 11,1 C 83 % 1001,1 hPa 0,0 l/m 0 min 0 min 0 W/m 25,7 km/h (4 Bft) 97,87 %
10.11.2018 05:12 12,4 C 12,2 C 11,7 C 83 % 1001,0 hPa 0,0 l/m 0 min 0 min 0 W/m 35,4 km/h (5 Bft) 97,87 %
10.11.2018 05:14 12,5 C 12,2 C 11,1 C 83 % 1001,0 hPa 0,0 l/m 0 min 0 min 0 W/m 25,7 km/h (4 Bft) 95,74 %
10.11.2018 05:19 12,6 C 12,2 C 11,1 C 82 % 1000,8 hPa 0,0 l/m 0 min 0 min 0 W/m 29,0 km/h (5 Bft) 98,41 %
10.11.2018 05:20 12,6 C 12,2 C 11,1 C 83 % 1000,8 hPa 0,0 l/m 0 min 0 min 0 W/m 32,2 km/h (5 Bft) 91,30 %
10.11.2018 05:22 12,7 C 12,2 C 11,1 C 82 % 1000,7 hPa 0,0 l/m 0 min 0 min 0 W/m 35,4 km/h (5 Bft) 97,87 %
10.11.2018 05:24 12,7 C 12,2 C 11,7 C 82 % 1000,8 hPa 0,0 l/m 0 min 0 min 0 W/m 22,5 km/h (4 Bft) 95,74 %
10.11.2018 05:26 12,7 C 12,2 C 11,7 C 82 % 1000,8 hPa 0,0 l/m 0 min 0 min 0 W/m 32,2 km/h (5 Bft) 97,87 %
10.11.2018 05:28 12,8 C 12,2 C 11,7 C 82 % 1000,7 hPa 0,0 l/m 0 min 0 min 0 W/m 32,2 km/h (5 Bft) 97,87 %
10.11.2018 05:30 12,8 C 12,2 C 11,7 C 82 % 1000,6 hPa 0,0 l/m 0 min 0 min 0 W/m 22,5 km/h (4 Bft) 95,74 %
10.11.2018 05:32 12,8 C 12,2 C 11,7 C 82 % 1000,6 hPa 0,0 l/m 0 min 0 min 0 W/m 32,2 km/h (5 Bft) 93,48 %
10.11.2018 05:34 12,8 C 12,2 C 11,7 C 81 % 1000,6 hPa 0,0 l/m 0 min 0 min 0 W/m 22,5 km/h (4 Bft) 91,49 %
10.11.2018 05:36 12,9 C 12,8 C 11,7 C 81 % 1000,8 hPa 0,0 l/m 0 min 0 min 0 W/m 25,7 km/h (4 Bft) 97,87 %
10.11.2018 05:38 12,9 C 12,8 C 11,7 C 81 % 1000,7 hPa 0,0 l/m 0 min 0 min 0 W/m 29,0 km/h (5 Bft) 97,87 %
10.11.2018 05:40 12,9 C 12,8 C 11,7 C 81 % 1000,7 hPa 0,0 l/m 0 min 0 min 0 W/m 45,1 km/h (6 Bft) 95,74 %
10.11.2018 05:42 13,0 C 12,8 C 11,7 C 81 % 1000,8 hPa 0,0 l/m 0 min 0 min 0 W/m 19,3 km/h (3 Bft) 93,48 %
10.11.2018 05:44 13,0 C 12,8 C 11,7 C 81 % 1000,8 hPa 0,0 l/m 0 min 0 min 0 W/m 29,0 km/h (5 Bft) 93,62 %
10.11.2018 05:46 13,0 C 12,8 C 11,7 C 81 % 1000,7 hPa 0,0 l/m 0 min 0 min 0 W/m 22,5 km/h (4 Bft) 95,74 %
10.11.2018 05:48 13,1 C 12,8 C 11,7 C 81 % 1000,7 hPa 0,0 l/m 0 min 0 min 0 W/m 16,1 km/h (3 Bft) 95,74 %
10.11.2018 05:50 13,1 C 12,8 C 11,7 C 80 % 1000,8 hPa 0,0 l/m 0 min 0 min 0 W/m 32,2 km/h (5 Bft) 93,62 %
10.11.2018 05:52 13,1 C 12,8 C 11,7 C 80 % 1000,8 hPa 0,0 l/m 0 min 0 min 0 W/m 32,2 km/h (5 Bft) 97,87 %
10.11.2018 05:54 13,1 C 12,8 C 11,7 C 80 % 1000,9 hPa 0,0 l/m 0 min 0 min 0 W/m 25,7 km/h (4 Bft) 97,87 %
10.11.2018 05:56 13,1 C 12,8 C 11,7 C 80 % 1000,9 hPa 0,0 l/m 0 min 0 min 0 W/m 29,0 km/h (5 Bft) 97,83 %
10.11.2018 05:58 13,1 C 12,8 C 11,7 C 80 % 1000,8 hPa 0,0 l/m 0 min 0 min 0 W/m 25,7 km/h (4 Bft) 95,74 %
10.11.2018 06:00 13,1 C 12,8 C 11,7 C 80 % 1000,8 hPa 0,0 l/m 0 min 0 min 0 W/m 19,3 km/h (3 Bft) 97,87 %
10.11.2018 06:02 13,1 C 12,8 C 11,7 C 80 % 1000,6 hPa 0,0 l/m 0 min 0 min 0 W/m 25,7 km/h (4 Bft) 95,83 %
10.11.2018 06:04 13,1 C 12,8 C 11,7 C 80 % 1000,7 hPa 0,0 l/m 0 min 0 min 0 W/m 25,7 km/h (4 Bft) 97,87 %
10.11.2018 06:08 13,2 C 12,8 C 11,7 C 80 % 1000,7 hPa 0,0 l/m 0 min 0 min 0 W/m 29,0 km/h (5 Bft) 96,77 %
10.11.2018 06:10 13,2 C 12,8 C 11,7 C 80 % 1000,7 hPa 0,0 l/m 0 min 0 min 0 W/m 25,7 km/h (4 Bft) 97,87 %
10.11.2018 06:12 13,2 C 12,8 C 11,7 C 80 % 1000,7 hPa 0,0 l/m 0 min 0 min 0 W/m 32,2 km/h (5 Bft) 95,74 %
10.11.2018 06:14 13,2 C 12,8 C 11,7 C 80 % 1000,5 hPa 0,0 l/m 0 min 0 min 0 W/m 25,7 km/h (4 Bft) 97,87 %
10.11.2018 06:16 13,2 C 12,8 C 11,7 C 80 % 1000,7 hPa 0,0 l/m 0 min 0 min 0 W/m 29,0 km/h (5 Bft) 97,87 %
10.11.2018 06:18 13,2 C 12,8 C 11,7 C 80 % 1000,6 hPa 0,0 l/m 0 min 2 min 0 W/m 38,6 km/h (5 Bft) 97,87 %
10.11.2018 06:20 13,2 C 12,2 C 11,7 C 80 % 1000,6 hPa 0,0 l/m 0 min 2 min 0 W/m 32,2 km/h (5 Bft) 97,87 %
10.11.2018 06:22 13,3 C 11,7 C 11,7 C 80 % 1000,6 hPa 0,0 l/m 0 min 2 min 0 W/m 22,5 km/h (4 Bft) 95,74 %
10.11.2018 06:24 13,3 C 11,7 C 11,1 C 80 % 1000,7 hPa 0,0 l/m 0 min 2 min 0 W/m 38,6 km/h (5 Bft) 97,87 %
10.11.2018 06:26 13,3 C 11,1 C 10,6 C 80 % 1000,6 hPa 0,0 l/m 0 min 2 min 0 W/m 25,7 km/h (4 Bft) 97,87 %
10.11.2018 06:28 13,3 C 11,1 C 10,6 C 81 % 1000,6 hPa 0,0 l/m 0 min 2 min 0 W/m 22,5 km/h (4 Bft) 97,83 %
10.11.2018 06:30 13,2 C 10,6 C 10,0 C 81 % 1000,6 hPa 0,2 l/m 0 min 2 min 0 W/m 25,7 km/h (4 Bft) 97,87 %
10.11.2018 06:32 13,2 C 10,6 C 10,0 C 82 % 1000,6 hPa 0,0 l/m 0 min 2 min 0 W/m 29,0 km/h (5 Bft) 97,22 %
10.11.2018 06:34 13,2 C 10,0 C 10,0 C 82 % 1000,6 hPa 0,0 l/m 0 min 2 min 0 W/m 25,7 km/h (4 Bft) 100,00 %
10.11.2018 06:36 13,1 C 10,0 C 10,0 C 83 % 1000,6 hPa 0,2 l/m 0 min 2 min 0 W/m 22,5 km/h (4 Bft) 100,00 %
10.11.2018 06:38 13,0 C 10,0 C 9,4 C 83 % 1000,6 hPa 0,0 l/m 0 min 2 min 0 W/m 25,7 km/h (4 Bft) 100,00 %
10.11.2018 06:40 12,9 C 10,0 C 9,4 C 84 % 1000,6 hPa 0,0 l/m 0 min 2 min 0 W/m 29,0 km/h (5 Bft) 100,00 %
10.11.2018 06:42 12,9 C 10,0 C 9,4 C 84 % 1000,6 hPa 0,2 l/m 0 min 2 min 0 W/m 25,7 km/h (4 Bft) 97,87 %
10.11.2018 06:44 12,8 C 10,0 C 9,4 C 85 % 1000,5 hPa 0,0 l/m 0 min 2 min 0 W/m 22,5 km/h (4 Bft) 100,00 %
10.11.2018 06:46 12,7 C 10,0 C 9,4 C 86 % 1000,6 hPa 0,0 l/m 0 min 2 min 0 W/m 35,4 km/h (5 Bft) 97,92 %
10.11.2018 06:48 12,6 C 10,0 C 9,4 C 86 % 1000,5 hPa 0,0 l/m 0 min 2 min 0 W/m 22,5 km/h (4 Bft) 100,00 %
10.11.2018 06:50 12,5 C 10,0 C 9,4 C 86 % 1000,5 hPa 0,2 l/m 0 min 2 min 0 W/m 25,7 km/h (4 Bft) 100,00 %
10.11.2018 06:52 12,4 C 10,0 C 9,4 C 87 % 1000,5 hPa 0,0 l/m 0 min 2 min 0 W/m 25,7 km/h (4 Bft) 100,00 %
10.11.2018 06:54 12,4 C 10,0 C 9,4 C 87 % 1000,5 hPa 0,0 l/m 0 min 2 min 0 W/m 29,0 km/h (5 Bft) 100,00 %
10.11.2018 06:56 12,3 C 10,0 C 9,4 C 87 % 1000,5 hPa 0,0 l/m 0 min 2 min 0 W/m 22,5 km/h (4 Bft) 100,00 %
10.11.2018 06:58 12,2 C 10,0 C 9,4 C 88 % 1000,5 hPa 0,0 l/m 0 min 2 min 0 W/m 29,0 km/h (5 Bft) 100,00 %
10.11.2018 07:00 12,2 C 10,0 C 9,4 C 88 % 1000,5 hPa 0,0 l/m 0 min 2 min 0 W/m 25,7 km/h (4 Bft) 100,00 %
10.11.2018 07:02 12,1 C 10,0 C 9,4 C 88 % 1000,6 hPa 0,0 l/m 0 min 2 min 0 W/m 29,0 km/h (5 Bft) 100,00 %
10.11.2018 07:04 12,1 C 10,0 C 9,4 C 88 % 1000,6 hPa 0,0 l/m 0 min 2 min 0 W/m 25,7 km/h (4 Bft) 100,00 %
10.11.2018 07:06 12,0 C 10,0 C 9,4 C 89 % 1000,6 hPa 0,2 l/m 0 min 2 min 0 W/m 29,0 km/h (5 Bft) 100,00 %
10.11.2018 07:08 11,9 C 10,0 C 9,4 C 89 % 1000,5 hPa 0,0 l/m 0 min 2 min 0 W/m 25,7 km/h (4 Bft) 100,00 %
10.11.2018 07:10 11,9 C 10,0 C 9,4 C 89 % 1000,5 hPa 0,0 l/m 0 min 2 min 0 W/m 16,1 km/h (3 Bft) 100,00 %
10.11.2018 07:12 11,8 C 10,0 C 9,4 C 89 % 1000,5 hPa 0,0 l/m 0 min 2 min 0 W/m 29,0 km/h (5 Bft) 100,00 %
10.11.2018 07:14 11,8 C 10,0 C 9,4 C 89 % 1000,5 hPa 0,0 l/m 0 min 2 min 0 W/m 32,2 km/h (5 Bft) 97,87 %
10.11.2018 07:16 11,8 C 9,4 C 9,4 C 90 % 1000,4 hPa 0,0 l/m 0 min 2 min 0 W/m 29,0 km/h (5 Bft) 100,00 %
10.11.2018 07:18 11,7 C 9,4 C 9,4 C 90 % 1000,5 hPa 0,2 l/m 0 min 2 min 0 W/m 25,7 km/h (4 Bft) 97,83 %
10.11.2018 07:20 11,7 C 9,4 C 9,4 C 90 % 1000,5 hPa 0,0 l/m 0 min 2 min 0 W/m 35,4 km/h (5 Bft) 100,00 %
10.11.2018 07:22 11,7 C 10,0 C 9,4 C 90 % 1000,5 hPa 0,0 l/m 0 min 2 min 0 W/m 25,7 km/h (4 Bft) 100,00 %
10.11.2018 07:24 11,7 C 10,0 C 9,4 C 90 % 1000,5 hPa 0,0 l/m 0 min 2 min 0 W/m 29,0 km/h (5 Bft) 95,74 %
10.11.2018 07:26 11,6 C 10,0 C 9,4 C 90 % 1000,5 hPa 0,0 l/m 0 min 2 min 0 W/m 29,0 km/h (5 Bft) 100,00 %
10.11.2018 07:28 11,6 C 10,0 C 9,4 C 91 % 1000,5 hPa 0,0 l/m 0 min 2 min 0 W/m 35,4 km/h (5 Bft) 100,00 %
10.11.2018 07:30 11,6 C 10,0 C 9,4 C 91 % 1000,4 hPa 0,0 l/m 0 min 2 min 0 W/m 22,5 km/h (4 Bft) 100,00 %
10.11.2018 07:32 11,6 C 10,0 C 9,4 C 91 % 1000,5 hPa 0,0 l/m 0 min 2 min 0 W/m 22,5 km/h (4 Bft) 97,87 %
10.11.2018 07:34 11,6 C 10,0 C 9,4 C 91 % 1000,6 hPa 0,0 l/m 0 min 2 min 0 W/m 29,0 km/h (5 Bft) 97,87 %
10.11.2018 07:36 11,6 C 10,0 C 9,4 C 91 % 1000,6 hPa 0,2 l/m 0 min 2 min 0 W/m 29,0 km/h (5 Bft) 97,87 %
10.11.2018 07:38 11,5 C 10,0 C 9,4 C 91 % 1000,6 hPa 0,0 l/m 0 min 2 min 0 W/m 32,2 km/h (5 Bft) 97,87 %
10.11.2018 07:40 11,5 C 10,0 C 9,4 C 91 % 1000,6 hPa 0,0 l/m 0 min 2 min 0 W/m 22,5 km/h (4 Bft) 97,87 %
10.11.2018 07:42 11,5 C 10,0 C 9,4 C 91 % 1000,6 hPa 0,2 l/m 0 min 2 min 0 W/m 29,0 km/h (5 Bft) 97,83 %
10.11.2018 07:44 11,4 C 10,0 C 9,4 C 92 % 1000,5 hPa 0,0 l/m 0 min 2 min 0 W/m 29,0 km/h (5 Bft) 97,87 %
10.11.2018 07:46 11,4 C 10,0 C 9,4 C 92 % 1000,6 hPa 0,0 l/m 0 min 2 min 0 W/m 32,2 km/h (5 Bft) 95,35 %
10.11.2018 07:48 11,4 C 10,0 C 9,4 C 92 % 1000,6 hPa 0,0 l/m 0 min 2 min 0 W/m 19,3 km/h (3 Bft) 97,87 %
10.11.2018 07:50 11,4 C 10,0 C 9,4 C 92 % 1000,6 hPa 0,0 l/m 0 min 2 min 0 W/m 29,0 km/h (5 Bft) 95,74 %
10.11.2018 07:52 11,4 C 10,0 C 9,4 C 92 % 1000,6 hPa 0,0 l/m 0 min 2 min 0 W/m 25,7 km/h (4 Bft) 97,87 %
10.11.2018 07:54 11,4 C 10,0 C 9,4 C 92 % 1000,6 hPa 0,0 l/m 0 min 0 min 5 W/m 25,7 km/h (4 Bft) 97,83 %
10.11.2018 07:56 11,4 C 10,0 C 9,4 C 92 % 1000,6 hPa 0,0 l/m 0 min 0 min 7 W/m 22,5 km/h (4 Bft) 93,62 %
10.11.2018 07:58 11,4 C 10,0 C 9,4 C 92 % 1000,6 hPa 0,0 l/m 0 min 0 min 7 W/m 25,7 km/h (4 Bft) 95,74 %
10.11.2018 08:00 11,4 C 10,0 C 9,4 C 92 % 1000,7 hPa 0,0 l/m 0 min 0 min 7 W/m 25,7 km/h (4 Bft) 95,74 %
10.11.2018 08:02 11,4 C 10,0 C 9,4 C 92 % 1000,7 hPa 0,0 l/m 0 min 0 min 7 W/m 22,5 km/h (4 Bft) 95,74 %
10.11.2018 08:04 11,3 C 10,0 C 9,4 C 92 % 1000,8 hPa 0,0 l/m 0 min 0 min 7 W/m 25,7 km/h (4 Bft) 95,74 %
10.11.2018 08:06 11,3 C 10,0 C 9,4 C 93 % 1000,8 hPa 0,0 l/m 0 min 0 min 7 W/m 25,7 km/h (4 Bft) 94,83 %
10.11.2018 08:08 11,3 C 10,0 C 9,4 C 93 % 1000,8 hPa 0,0 l/m 0 min 0 min 9 W/m 35,4 km/h (5 Bft) 91,43 %
10.11.2018 08:10 11,3 C 10,0 C 9,4 C 93 % 1000,9 hPa 0,0 l/m 0 min 2 min 10 W/m 25,7 km/h (4 Bft) 95,74 %
10.11.2018 08:12 11,3 C 10,0 C 9,4 C 93 % 1000,9 hPa 0,0 l/m 0 min 0 min 12 W/m 32,2 km/h (5 Bft) 95,74 %
10.11.2018 08:14 11,3 C 10,0 C 9,4 C 93 % 1000,9 hPa 0,0 l/m 0 min 2 min 12 W/m 32,2 km/h (5 Bft) 93,62 %
10.11.2018 08:16 11,3 C 10,0 C 9,4 C 93 % 1000,8 hPa 0,0 l/m 0 min 0 min 11 W/m 16,1 km/h (3 Bft) 93,75 %
10.11.2018 08:18 11,3 C 10,0 C 9,4 C 93 % 1000,9 hPa 0,0 l/m 0 min 0 min 11 W/m 35,4 km/h (5 Bft) 91,49 %
10.11.2018 08:20 11,3 C 10,0 C 9,4 C 93 % 1000,9 hPa 0,0 l/m 0 min 0 min 9 W/m 22,5 km/h (4 Bft) 93,62 %
10.11.2018 08:22 11,3 C 10,0 C 9,4 C 93 % 1001,0 hPa 0,0 l/m 0 min 0 min 9 W/m 22,5 km/h (4 Bft) 93,62 %
10.11.2018 08:24 11,3 C 10,0 C 9,4 C 93 % 1001,0 hPa 0,0 l/m 0 min 0 min 9 W/m 22,5 km/h (4 Bft) 92,45 %
10.11.2018 08:26 11,3 C 10,0 C 9,4 C 93 % 1001,0 hPa 0,0 l/m 0 min 0 min 9 W/m 22,5 km/h (4 Bft) 95,65 %
10.11.2018 08:28 11,3 C 10,0 C 9,4 C 93 % 1001,0 hPa 0,0 l/m 0 min 0 min 9 W/m 22,5 km/h (4 Bft) 91,49 %
10.11.2018 08:30 11,3 C 10,0 C 9,4 C 93 % 1001,0 hPa 0,0 l/m 0 min 0 min 10 W/m 22,5 km/h (4 Bft) 91,49 %
10.11.2018 08:32 11,3 C 10,0 C 9,4 C 93 % 1001,1 hPa 0,0 l/m 0 min 0 min 11 W/m 22,5 km/h (4 Bft) 90,00 %
10.11.2018 08:34 11,3 C 10,0 C 9,4 C 93 % 1001,0 hPa 0,0 l/m 0 min 0 min 12 W/m 12,9 km/h (3 Bft) 87,23 %
10.11.2018 08:36 11,3 C 10,0 C 9,4 C 93 % 1001,1 hPa 0,0 l/m 0 min 0 min 11 W/m 25,7 km/h (4 Bft) 92,00 %
10.11.2018 08:38 11,3 C 10,0 C 9,4 C 93 % 1001,1 hPa 0,0 l/m 0 min 0 min 11 W/m 22,5 km/h (4 Bft) 89,13 %
10.11.2018 08:40 11,3 C 10,0 C 9,4 C 93 % 1001,0 hPa 0,0 l/m 0 min 0 min 11 W/m 22,5 km/h (4 Bft) 86,11 %
10.11.2018 08:42 11,3 C 10,0 C 9,4 C 93 % 1001,1 hPa 0,0 l/m 0 min 0 min 12 W/m 16,1 km/h (3 Bft) 93,48 %
10.11.2018 08:44 11,3 C 10,0 C 9,4 C 93 % 1001,1 hPa 0,0 l/m 0 min 0 min 12 W/m 25,7 km/h (4 Bft) 97,92 %
10.11.2018 08:46 11,3 C 10,0 C 9,4 C 93 % 1001,2 hPa 0,0 l/m 0 min 0 min 11 W/m 19,3 km/h (3 Bft) 93,88 %
10.11.2018 08:48 11,3 C 10,0 C 9,4 C 93 % 1001,1 hPa 0,0 l/m 0 min 0 min 12 W/m 22,5 km/h (4 Bft) 95,74 %
10.11.2018 08:50 11,3 C 10,0 C 9,4 C 93 % 1001,1 hPa 0,0 l/m 0 min 0 min 14 W/m 12,9 km/h (3 Bft) 93,62 %
10.11.2018 08:52 11,3 C 10,0 C 9,4 C 93 % 1001,1 hPa 0,0 l/m 0 min 0 min 18 W/m 22,5 km/h (4 Bft) 97,83 %
10.11.2018 08:54 11,3 C 10,0 C 9,4 C 93 % 1001,2 hPa 0,0 l/m 0 min 0 min 21 W/m 22,5 km/h (4 Bft) 95,74 %
10.11.2018 08:56 11,3 C 10,6 C 9,4 C 93 % 1001,2 hPa 0,0 l/m 0 min 0 min 21 W/m 25,7 km/h (4 Bft) 97,87 %
10.11.2018 08:58 11,3 C 10,6 C 9,4 C 93 % 1001,2 hPa 0,0 l/m 0 min 0 min 21 W/m 29,0 km/h (5 Bft) 93,62 %
10.11.2018 09:00 11,3 C 10,6 C 9,4 C 93 % 1001,3 hPa 0,0 l/m 0 min 0 min 18 W/m 29,0 km/h (5 Bft) 93,62 %
10.11.2018 09:02 11,3 C 10,6 C 10,0 C 93 % 1001,2 hPa 0,0 l/m 0 min 0 min 18 W/m 12,9 km/h (3 Bft) 95,92 %
10.11.2018 09:04 11,3 C 10,6 C 10,0 C 93 % 1001,3 hPa 0,0 l/m 0 min 0 min 19 W/m 19,3 km/h (3 Bft) 95,74 %
10.11.2018 09:06 11,4 C 10,6 C 10,0 C 93 % 1001,2 hPa 0,0 l/m 0 min 0 min 19 W/m 19,3 km/h (3 Bft) 97,92 %
10.11.2018 09:08 11,4 C 10,6 C 10,0 C 93 % 1001,2 hPa 0,0 l/m 0 min 0 min 15 W/m 19,3 km/h (3 Bft) 97,87 %
10.11.2018 09:10 11,4 C 10,6 C 10,0 C 93 % 1001,3 hPa 0,0 l/m 0 min 0 min 13 W/m 12,9 km/h (3 Bft) 100,00 %
10.11.2018 09:12 11,4 C 10,6 C 10,0 C 93 % 1001,3 hPa 0,0 l/m 0 min 0 min 12 W/m 16,1 km/h (3 Bft) 100,00 %
10.11.2018 09:14 11,4 C 10,6 C 10,0 C 93 % 1001,2 hPa 0,0 l/m 0 min 0 min 13 W/m 16,1 km/h (3 Bft) 97,83 %
10.11.2018 09:16 11,4 C 10,0 C 10,0 C 93 % 1001,2 hPa 0,0 l/m 0 min 0 min 17 W/m 22,5 km/h (4 Bft) 97,30 %
10.11.2018 09:18 11,4 C 10,6 C 10,0 C 93 % 1001,2 hPa 0,0 l/m 0 min 0 min 18 W/m 22,5 km/h (4 Bft) 100,00 %
10.11.2018 09:20 11,4 C 10,6 C 10,0 C 93 % 1001,2 hPa 0,0 l/m 0 min 0 min 18 W/m 9,7 km/h (2 Bft) 100,00 %
10.11.2018 09:22 11,4 C 10,6 C 10,0 C 93 % 1001,2 hPa 0,0 l/m 0 min 0 min 18 W/m 12,9 km/h (3 Bft) 97,87 %
10.11.2018 09:24 11,4 C 10,6 C 10,0 C 93 % 1001,3 hPa 0,0 l/m 0 min 0 min 15 W/m 9,7 km/h (2 Bft) 100,00 %
10.11.2018 09:26 11,4 C 10,6 C 10,0 C 93 % 1001,3 hPa 0,0 l/m 0 min 0 min 14 W/m 12,9 km/h (3 Bft) 100,00 %
10.11.2018 09:28 11,4 C 10,6 C 10,0 C 93 % 1001,3 hPa 0,0 l/m 0 min 0 min 18 W/m 12,9 km/h (3 Bft) 100,00 %
10.11.2018 09:30 11,4 C 10,6 C 10,0 C 93 % 1001,3 hPa 0,0 l/m 0 min 0 min 22 W/m 9,7 km/h (2 Bft) 97,87 %
10.11.2018 09:32 11,4 C 10,6 C 10,0 C 93 % 1001,3 hPa 0,0 l/m 0 min 0 min 25 W/m 9,7 km/h (2 Bft) 100,00 %
10.11.2018 09:34 11,5 C 10,6 C 10,0 C 93 % 1001,3 hPa 0,0 l/m 0 min 0 min 26 W/m 9,7 km/h (2 Bft) 100,00 %
10.11.2018 09:36 11,5 C 10,6 C 10,0 C 93 % 1001,4 hPa 0,0 l/m 0 min 0 min 22 W/m 12,9 km/h (3 Bft) 100,00 %
10.11.2018 09:38 11,5 C 10,6 C 10,0 C 93 % 1001,3 hPa 0,0 l/m 0 min 0 min 21 W/m 12,9 km/h (3 Bft) 100,00 %
10.11.2018 09:40 11,5 C 10,6 C 10,0 C 93 % 1001,3 hPa 0,0 l/m 0 min 0 min 24 W/m 12,9 km/h (3 Bft) 100,00 %
10.11.2018 09:42 11,5 C 10,6 C 10,0 C 93 % 1001,4 hPa 0,0 l/m 0 min 0 min 18 W/m 16,1 km/h (3 Bft) 97,87 %
10.11.2018 09:44 11,5 C 10,6 C 10,0 C 93 % 1001,4 hPa 0,0 l/m 0 min 0 min 12 W/m 16,1 km/h (3 Bft) 100,00 %
10.11.2018 09:46 11,6 C 10,6 C 10,0 C 93 % 1001,5 hPa 0,0 l/m 0 min 0 min 11 W/m 9,7 km/h (2 Bft) 100,00 %
10.11.2018 09:48 11,6 C 10,6 C 10,0 C 93 % 1001,5 hPa 0,0 l/m 0 min 0 min 10 W/m 16,1 km/h (3 Bft) 100,00 %
10.11.2018 09:50 11,6 C 10,6 C 10,0 C 93 % 1001,5 hPa 0,0 l/m 0 min 0 min 9 W/m 12,9 km/h (3 Bft) 100,00 %
10.11.2018 09:52 11,6 C 10,6 C 10,0 C 93 % 1001,5 hPa 0,0 l/m 0 min 0 min 9 W/m 9,7 km/h (2 Bft) 100,00 %
10.11.2018 09:54 11,6 C 10,6 C 10,0 C 93 % 1001,6 hPa 0,0 l/m 0 min 0 min 9 W/m 16,1 km/h (3 Bft) 100,00 %
10.11.2018 09:56 11,6 C 10,6 C 10,0 C 93 % 1001,6 hPa 0,0 l/m 0 min 0 min 9 W/m 9,7 km/h (2 Bft) 100,00 %
10.11.2018 09:58 11,6 C 10,6 C 10,0 C 93 % 1001,6 hPa 0,0 l/m 0 min 0 min 9 W/m 12,9 km/h (3 Bft) 100,00 %
10.11.2018 10:00 11,6 C 10,6 C 10,0 C 93 % 1001,6 hPa 0,0 l/m 0 min 0 min 9 W/m 12,9 km/h (3 Bft) 100,00 %
10.11.2018 10:02 11,6 C 10,6 C 10,0 C 93 % 1001,6 hPa 0,0 l/m 0 min 0 min 11 W/m 12,9 km/h (3 Bft) 100,00 %
10.11.2018 10:04 11,6 C 10,6 C 10,0 C 93 % 1001,7 hPa 0,0 l/m 0 min 0 min 12 W/m 9,7 km/h (2 Bft) 100,00 %
10.11.2018 10:06 11,6 C 10,6 C 10,0 C 93 % 1001,7 hPa 0,0 l/m 0 min 0 min 16 W/m 9,7 km/h (2 Bft) 100,00 %
10.11.2018 10:08 11,6 C 10,6 C 10,0 C 93 % 1001,7 hPa 0,0 l/m 0 min 0 min 19 W/m 9,7 km/h (2 Bft) 100,00 %
10.11.2018 10:10 11,6 C 10,6 C 10,0 C 93 % 1001,7 hPa 0,0 l/m 0 min 0 min 23 W/m 12,9 km/h (3 Bft) 100,00 %
10.11.2018 10:12 11,7 C 10,6 C 10,0 C 93 % 1001,6 hPa 0,0 l/m 0 min 0 min 26 W/m 12,9 km/h (3 Bft) 100,00 %
10.11.2018 10:14 11,7 C 10,6 C 10,0 C 93 % 1001,7 hPa 0,0 l/m 0 min 0 min 29 W/m 9,7 km/h (2 Bft) 100,00 %
10.11.2018 10:16 11,7 C 10,6 C 10,0 C 93 % 1001,7 hPa 0,0 l/m 0 min 0 min 35 W/m 9,7 km/h (2 Bft) 100,00 %
10.11.2018 10:18 11,7 C 11,1 C 10,0 C 93 % 1001,6 hPa 0,0 l/m 0 min 0 min 41 W/m 9,7 km/h (2 Bft) 100,00 %
10.11.2018 10:20 11,7 C 11,1 C 10,0 C 93 % 1001,6 hPa 0,0 l/m 0 min 0 min 41 W/m 12,9 km/h (3 Bft) 97,87 %
10.11.2018 10:22 11,7 C 11,1 C 10,6 C 93 % 1001,6 hPa 0,0 l/m 0 min 0 min 48 W/m 9,7 km/h (2 Bft) 100,00 %
10.11.2018 10:24 11,7 C 11,1 C 10,6 C 93 % 1001,6 hPa 0,0 l/m 0 min 0 min 50 W/m 9,7 km/h (2 Bft) 100,00 %
10.11.2018 10:26 11,7 C 11,1 C 10,6 C 93 % 1001,6 hPa 0,0 l/m 0 min 0 min 42 W/m 6,4 km/h (2 Bft) 100,00 %
10.11.2018 10:28 11,7 C 11,1 C 10,6 C 93 % 1001,6 hPa 0,0 l/m 0 min 0 min 38 W/m 6,4 km/h (2 Bft) 100,00 %
10.11.2018 10:30 11,8 C 11,1 C 10,6 C 93 % 1001,6 hPa 0,0 l/m 0 min 0 min 47 W/m 12,9 km/h (3 Bft) 100,00 %
10.11.2018 10:32 11,8 C 11,1 C 10,6 C 93 % 1001,6 hPa 0,0 l/m 0 min 0 min 48 W/m 9,7 km/h (2 Bft) 100,00 %
10.11.2018 10:34 11,8 C 11,1 C 10,6 C 93 % 1001,6 hPa 0,0 l/m 0 min 0 min 47 W/m 9,7 km/h (2 Bft) 97,87 %
10.11.2018 10:36 11,9 C 11,7 C 10,6 C 93 % 1001,7 hPa 0,0 l/m 0 min 0 min 44 W/m 6,4 km/h (2 Bft) 100,00 %
10.11.2018 10:38 11,9 C 11,7 C 10,6 C 93 % 1001,6 hPa 0,0 l/m 0 min 0 min 39 W/m 9,7 km/h (2 Bft) 100,00 %
10.11.2018 10:40 11,9 C 11,7 C 10,6 C 93 % 1001,6 hPa 0,0 l/m 0 min 0 min 42 W/m 9,7 km/h (2 Bft) 97,87 %
10.11.2018 10:42 11,9 C 11,7 C 10,6 C 94 % 1001,6 hPa 0,0 l/m 0 min 0 min 57 W/m 9,7 km/h (2 Bft) 97,87 %
10.11.2018 10:44 12,0 C 11,7 C 11,1 C 94 % 1001,6 hPa 0,0 l/m 0 min 0 min 81 W/m 16,1 km/h (3 Bft) 97,87 %
10.11.2018 10:46 12,1 C 11,7 C 11,1 C 94 % 1001,6 hPa 0,0 l/m 0 min 0 min 65 W/m 6,4 km/h (2 Bft) 93,75 %
10.11.2018 10:48 12,1 C 12,2 C 11,1 C 94 % 1001,7 hPa 0,0 l/m 0 min 0 min 50 W/m 9,7 km/h (2 Bft) 97,83 %
10.11.2018 10:50 12,1 C 12,2 C 11,1 C 94 % 1001,7 hPa 0,0 l/m 0 min 0 min 50 W/m 12,9 km/h (3 Bft) 97,87 %
10.11.2018 10:52 12,2 C 12,2 C 11,1 C 94 % 1001,7 hPa 0,0 l/m 0 min 0 min 50 W/m 12,9 km/h (3 Bft) 97,87 %
10.11.2018 10:54 12,2 C 12,2 C 11,1 C 94 % 1001,7 hPa 0,0 l/m 0 min 0 min 50 W/m 9,7 km/h (2 Bft) 95,74 %
10.11.2018 10:56 12,3 C 12,2 C 11,1 C 94 % 1001,7 hPa 0,0 l/m 0 min 0 min 53 W/m 16,1 km/h (3 Bft) 97,87 %
10.11.2018 10:58 12,3 C 12,2 C 11,1 C 93 % 1001,7 hPa 0,0 l/m 0 min 0 min 50 W/m 22,5 km/h (4 Bft) 97,87 %
10.11.2018 11:00 12,4 C 12,2 C 11,1 C 94 % 1001,7 hPa 0,0 l/m 0 min 0 min 47 W/m 12,9 km/h (3 Bft) 95,65 %
10.11.2018 11:02 12,4 C 12,2 C 11,1 C 93 % 1001,7 hPa 0,0 l/m 0 min 0 min 45 W/m 9,7 km/h (2 Bft) 93,75 %
10.11.2018 11:04 12,4 C 12,2 C 11,1 C 93 % 1001,7 hPa 0,0 l/m 0 min 0 min 52 W/m 12,9 km/h (3 Bft) 93,62 %
10.11.2018 11:06 12,5 C 12,2 C 11,7 C 93 % 1001,7 hPa 0,0 l/m 0 min 0 min 65 W/m 22,5 km/h (4 Bft) 95,83 %
10.11.2018 11:08 12,6 C 12,2 C 11,7 C 93 % 1001,7 hPa 0,0 l/m 0 min 0 min 68 W/m 16,1 km/h (3 Bft) 93,62 %
10.11.2018 11:10 12,7 C 12,2 C 11,7 C 93 % 1001,6 hPa 0,0 l/m 0 min 0 min 62 W/m 9,7 km/h (2 Bft) 93,62 %
10.11.2018 11:12 12,7 C 12,2 C 11,7 C 93 % 1001,6 hPa 0,0 l/m 0 min 0 min 54 W/m 12,9 km/h (3 Bft) 93,48 %
10.11.2018 11:14 12,7 C 12,2 C 11,7 C 93 % 1001,6 hPa 0,0 l/m 0 min 0 min 53 W/m 9,7 km/h (2 Bft) 91,49 %
10.11.2018 11:16 12,8 C 12,2 C 11,7 C 92 % 1001,6 hPa 0,0 l/m 0 min 0 min 52 W/m 9,7 km/h (2 Bft) 93,62 %
10.11.2018 11:18 12,8 C 12,8 C 11,7 C 92 % 1001,7 hPa 0,0 l/m 0 min 0 min 41 W/m 9,7 km/h (2 Bft) 91,49 %
10.11.2018 11:20 12,9 C 12,2 C 11,7 C 92 % 1001,7 hPa 0,0 l/m 0 min 0 min 35 W/m 9,7 km/h (2 Bft) 91,49 %
10.11.2018 11:22 12,9 C 12,2 C 11,7 C 92 % 1001,7 hPa 0,0 l/m 0 min 0 min 38 W/m 9,7 km/h (2 Bft) 95,65 %
10.11.2018 11:24 12,9 C 12,8 C 11,7 C 92 % 1001,7 hPa 0,0 l/m 0 min 0 min 49 W/m 6,4 km/h (2 Bft) 95,74 %
10.11.2018 11:26 13,0 C 12,8 C 11,7 C 92 % 1001,7 hPa 0,0 l/m 0 min 0 min 56 W/m 19,3 km/h (3 Bft) 95,74 %
10.11.2018 11:28 13,0 C 12,8 C 11,7 C 91 % 1001,6 hPa 0,0 l/m 0 min 0 min 58 W/m 9,7 km/h (2 Bft) 93,62 %
10.11.2018 11:30 13,1 C 12,8 C 11,7 C 91 % 1001,7 hPa 0,0 l/m 0 min 0 min 66 W/m 9,7 km/h (2 Bft) 93,62 %
10.11.2018 11:32 13,1 C 13,3 C 11,7 C 91 % 1001,7 hPa 0,0 l/m 0 min 0 min 76 W/m 9,7 km/h (2 Bft) 95,74 %
10.11.2018 11:34 13,1 C 13,3 C 11,7 C 91 % 1001,7 hPa 0,0 l/m 0 min 2 min 80 W/m 9,7 km/h (2 Bft) 95,65 %
10.11.2018 11:36 13,2 C 13,3 C 11,7 C 91 % 1001,7 hPa 0,0 l/m 0 min 2 min 74 W/m 12,9 km/h (3 Bft) 95,74 %
10.11.2018 11:38 13,2 C 13,3 C 11,7 C 91 % 1001,7 hPa 0,0 l/m 0 min 0 min 72 W/m 9,7 km/h (2 Bft) 93,62 %
10.11.2018 11:40 13,2 C 13,3 C 11,7 C 91 % 1001,8 hPa 0,0 l/m 0 min 2 min 65 W/m 9,7 km/h (2 Bft) 95,74 %
10.11.2018 11:42 13,3 C 12,8 C 11,7 C 91 % 1001,7 hPa 0,0 l/m 0 min 2 min 55 W/m 6,4 km/h (2 Bft) 95,74 %
10.11.2018 11:44 13,3 C 12,8 C 11,7 C 91 % 1001,8 hPa 0,0 l/m 0 min 2 min 44 W/m 12,9 km/h (3 Bft) 93,62 %
10.11.2018 11:46 13,3 C 12,8 C 11,7 C 90 % 1001,7 hPa 0,0 l/m 0 min 2 min 43 W/m 9,7 km/h (2 Bft) 95,65 %
10.11.2018 11:48 13,3 C 12,8 C 11,7 C 90 % 1001,7 hPa 0,0 l/m 0 min 2 min 44 W/m 9,7 km/h (2 Bft) 95,74 %
10.11.2018 11:50 13,4 C 12,8 C 11,7 C 90 % 1001,7 hPa 0,0 l/m 0 min 2 min 45 W/m 16,1 km/h (3 Bft) 95,74 %
10.11.2018 11:52 13,4 C 12,2 C 11,7 C 90 % 1001,7 hPa 0,0 l/m 0 min 2 min 51 W/m 9,7 km/h (2 Bft) 95,74 %
10.11.2018 11:54 13,4 C 12,2 C 11,7 C 90 % 1001,7 hPa 0,0 l/m 0 min 2 min 61 W/m 12,9 km/h (3 Bft) 95,74 %
10.11.2018 11:56 13,4 C 12,2 C 11,7 C 90 % 1001,6 hPa 0,0 l/m 0 min 2 min 61 W/m 9,7 km/h (2 Bft) 95,74 %
10.11.2018 11:58 13,4 C 12,2 C 11,7 C 90 % 1001,6 hPa 0,0 l/m 0 min 0 min 59 W/m 6,4 km/h (2 Bft) 97,83 %
10.11.2018 12:00 13,4 C 12,2 C 11,7 C 90 % 1001,6 hPa 0,0 l/m 0 min 2 min 61 W/m 12,9 km/h (3 Bft) 97,87 %
10.11.2018 12:02 13,5 C 12,2 C 11,7 C 90 % 1001,6 hPa 0,0 l/m 0 min 0 min 52 W/m 16,1 km/h (3 Bft) 97,92 %
10.11.2018 12:04 13,5 C 12,2 C 11,7 C 90 % 1001,6 hPa 0,0 l/m 0 min 2 min 49 W/m 9,7 km/h (2 Bft) 97,87 %
10.11.2018 12:08 13,5 C 12,2 C 11,7 C 90 % 1001,6 hPa 0,0 l/m 0 min 4 min 45 W/m 16,1 km/h (3 Bft) 100,00 %
10.11.2018 12:10 13,5 C 12,2 C 11,7 C 90 % 1001,6 hPa 0,0 l/m 0 min 2 min 41 W/m 9,7 km/h (2 Bft) 100,00 %
10.11.2018 12:12 13,5 C 12,2 C 11,1 C 90 % 1001,6 hPa 0,0 l/m 0 min 2 min 35 W/m 16,1 km/h (3 Bft) 97,87 %
10.11.2018 12:14 13,5 C 11,7 C 11,1 C 90 % 1001,7 hPa 0,0 l/m 0 min 2 min 31 W/m 12,9 km/h (3 Bft) 97,87 %
10.11.2018 12:16 13,5 C 11,7 C 11,1 C 90 % 1001,6 hPa 0,0 l/m 0 min 2 min 31 W/m 12,9 km/h (3 Bft) 100,00 %
10.11.2018 12:18 13,4 C 11,7 C 11,1 C 90 % 1001,7 hPa 0,2 l/m 0 min 2 min 29 W/m 16,1 km/h (3 Bft) 100,00 %
10.11.2018 12:20 13,4 C 11,7 C 11,1 C 90 % 1001,7 hPa 0,0 l/m 0 min 2 min 27 W/m 22,5 km/h (4 Bft) 100,00 %
10.11.2018 12:22 13,4 C 11,7 C 11,1 C 90 % 1001,6 hPa 0,0 l/m 0 min 2 min 31 W/m 12,9 km/h (3 Bft) 97,83 %
10.11.2018 12:24 13,4 C 11,7 C 11,1 C 90 % 1001,6 hPa 0,2 l/m 0 min 2 min 32 W/m 16,1 km/h (3 Bft) 97,87 %
10.11.2018 12:26 13,4 C 11,7 C 11,1 C 91 % 1001,6 hPa 0,0 l/m 0 min 2 min 32 W/m 9,7 km/h (2 Bft) 100,00 %
10.11.2018 12:28 13,4 C 11,1 C 11,1 C 91 % 1001,6 hPa 0,0 l/m 0 min 2 min 31 W/m 12,9 km/h (3 Bft) 100,00 %
10.11.2018 12:30 13,4 C 11,1 C 11,1 C 91 % 1001,7 hPa 0,2 l/m 0 min 2 min 28 W/m 9,7 km/h (2 Bft) 100,00 %
10.11.2018 12:32 13,3 C 11,1 C 11,1 C 91 % 1001,6 hPa 0,0 l/m 0 min 2 min 28 W/m 9,7 km/h (2 Bft) 100,00 %
10.11.2018 12:34 13,3 C 11,1 C 11,1 C 91 % 1001,6 hPa 0,2 l/m 0 min 2 min 28 W/m 12,9 km/h (3 Bft) 100,00 %
10.11.2018 12:36 13,3 C 11,1 C 11,1 C 91 % 1001,6 hPa 0,0 l/m 0 min 2 min 28 W/m 16,1 km/h (3 Bft) 100,00 %
10.11.2018 12:38 13,3 C 11,1 C 11,1 C 92 % 1001,6 hPa 0,0 l/m 0 min 2 min 32 W/m 16,1 km/h (3 Bft) 100,00 %
10.11.2018 12:40 13,2 C 11,7 C 11,1 C 92 % 1001,6 hPa 0,0 l/m 0 min 2 min 43 W/m 6,4 km/h (2 Bft) 100,00 %
10.11.2018 12:42 13,2 C 11,7 C 11,1 C 92 % 1001,6 hPa 0,0 l/m 0 min 2 min 49 W/m 16,1 km/h (3 Bft) 97,87 %
10.11.2018 12:44 13,2 C 11,7 C 11,1 C 92 % 1001,5 hPa 0,2 l/m 0 min 2 min 50 W/m 12,9 km/h (3 Bft) 97,87 %
10.11.2018 12:46 13,2 C 11,7 C 11,1 C 92 % 1001,5 hPa 0,0 l/m 0 min 2 min 58 W/m 12,9 km/h (3 Bft) 100,00 %
10.11.2018 12:48 13,1 C 11,7 C 11,1 C 92 % 1001,5 hPa 0,0 l/m 0 min 2 min 67 W/m 16,1 km/h (3 Bft) 100,00 %
10.11.2018 12:50 13,1 C 11,7 C 11,1 C 93 % 1001,4 hPa 0,2 l/m 0 min 2 min 76 W/m 12,9 km/h (3 Bft) 100,00 %
10.11.2018 12:52 13,1 C 11,7 C 11,1 C 93 % 1001,4 hPa 0,0 l/m 0 min 2 min 78 W/m 16,1 km/h (3 Bft) 100,00 %
10.11.2018 12:54 13,1 C 11,7 C 11,1 C 93 % 1001,4 hPa 0,0 l/m 0 min 2 min 72 W/m 9,7 km/h (2 Bft) 100,00 %
10.11.2018 12:56 13,1 C 11,7 C 11,1 C 93 % 1001,4 hPa 0,0 l/m 0 min 2 min 68 W/m 12,9 km/h (3 Bft) 100,00 %
10.11.2018 12:58 13,0 C 11,7 C 11,1 C 93 % 1001,3 hPa 0,0 l/m 0 min 2 min 60 W/m 16,1 km/h (3 Bft) 100,00 %
10.11.2018 13:00 13,0 C 11,7 C 11,1 C 93 % 1001,3 hPa 0,0 l/m 0 min 2 min 59 W/m 22,5 km/h (4 Bft) 97,87 %
10.11.2018 13:02 12,9 C 11,7 C 11,1 C 93 % 1001,3 hPa 0,0 l/m 0 min 2 min 56 W/m 12,9 km/h (3 Bft) 100,00 %
10.11.2018 13:04 12,9 C 11,7 C 11,1 C 93 % 1001,2 hPa 0,0 l/m 0 min 2 min 53 W/m 16,1 km/h (3 Bft) 100,00 %
10.11.2018 13:06 12,9 C 11,7 C 11,1 C 94 % 1001,3 hPa 0,0 l/m 0 min 2 min 54 W/m 9,7 km/h (2 Bft) 100,00 %
10.11.2018 13:08 12,9 C 11,7 C 11,1 C 94 % 1001,2 hPa 0,0 l/m 0 min 2 min 56 W/m 9,7 km/h (2 Bft) 100,00 %
10.11.2018 13:10 12,9 C 11,7 C 11,1 C 94 % 1001,2 hPa 0,0 l/m 0 min 2 min 56 W/m 16,1 km/h (3 Bft) 100,00 %
10.11.2018 13:12 12,8 C 11,7 C 11,1 C 94 % 1001,2 hPa 0,0 l/m 0 min 2 min 54 W/m 16,1 km/h (3 Bft) 98,11 %
10.11.2018 13:14 12,8 C 11,7 C 11,1 C 94 % 1001,2 hPa 0,0 l/m 0 min 2 min 51 W/m 16,1 km/h (3 Bft) 97,87 %
10.11.2018 13:16 12,8 C 11,7 C 11,1 C 94 % 1001,2 hPa 0,2 l/m 0 min 2 min 47 W/m 29,0 km/h (5 Bft) 97,67 %
10.11.2018 13:18 12,8 C 11,1 C 11,1 C 94 % 1001,1 hPa 0,0 l/m 0 min 2 min 46 W/m 16,1 km/h (3 Bft) 97,87 %
10.11.2018 13:20 12,7 C 11,1 C 11,1 C 94 % 1001,1 hPa 0,0 l/m 0 min 2 min 44 W/m 22,5 km/h (4 Bft) 97,87 %
10.11.2018 13:22 12,7 C 11,7 C 11,1 C 94 % 1001,2 hPa 0,0 l/m 0 min 2 min 44 W/m 12,9 km/h (3 Bft) 97,83 %
10.11.2018 13:24 12,7 C 11,7 C 11,1 C 94 % 1001,1 hPa 0,0 l/m 0 min 2 min 45 W/m 12,9 km/h (3 Bft) 95,74 %
10.11.2018 13:26 12,7 C 11,1 C 11,1 C 95 % 1001,2 hPa 0,2 l/m 0 min 2 min 44 W/m 19,3 km/h (3 Bft) 95,74 %
10.11.2018 13:28 12,7 C 11,1 C 11,1 C 95 % 1001,1 hPa 0,0 l/m 0 min 2 min 41 W/m 12,9 km/h (3 Bft) 97,87 %
10.11.2018 13:30 12,7 C 11,1 C 11,1 C 95 % 1001,2 hPa 0,0 l/m 0 min 2 min 41 W/m 12,9 km/h (3 Bft) 97,87 %
10.11.2018 13:32 12,7 C 11,1 C 11,1 C 95 % 1001,1 hPa 0,0 l/m 0 min 2 min 43 W/m 16,1 km/h (3 Bft) 97,87 %
10.11.2018 13:34 12,6 C 11,1 C 11,1 C 95 % 1001,2 hPa 0,0 l/m 0 min 2 min 47 W/m 22,5 km/h (4 Bft) 95,74 %
10.11.2018 13:36 12,6 C 11,7 C 11,1 C 95 % 1001,2 hPa 0,2 l/m 0 min 2 min 49 W/m 12,9 km/h (3 Bft) 97,87 %
10.11.2018 13:38 12,6 C 11,7 C 11,1 C 95 % 1001,2 hPa 0,0 l/m 0 min 2 min 54 W/m 9,7 km/h (2 Bft) 97,87 %
10.11.2018 13:40 12,6 C 11,7 C 11,1 C 95 % 1001,0 hPa 0,0 l/m 0 min 2 min 62 W/m 9,7 km/h (2 Bft) 93,62 %
10.11.2018 13:42 12,6 C 11,7 C 11,1 C 95 % 1001,0 hPa 0,2 l/m 0 min 2 min 69 W/m 16,1 km/h (3 Bft) 93,62 %
10.11.2018 13:44 12,6 C 11,7 C 11,1 C 95 % 1001,1 hPa 0,0 l/m 0 min 2 min 76 W/m 9,7 km/h (2 Bft) 97,83 %
10.11.2018 13:46 12,6 C 11,7 C 11,1 C 95 % 1001,0 hPa 0,0 l/m 0 min 2 min 78 W/m 16,1 km/h (3 Bft) 95,83 %
10.11.2018 13:48 12,6 C 11,7 C 11,1 C 95 % 1001,0 hPa 0,0 l/m 0 min 2 min 83 W/m 22,5 km/h (4 Bft) 93,62 %
10.11.2018 13:50 12,6 C 11,7 C 11,1 C 95 % 1000,9 hPa 0,0 l/m 0 min 2 min 88 W/m 12,9 km/h (3 Bft) 89,80 %
10.11.2018 13:52 12,6 C 11,7 C 11,1 C 95 % 1000,8 hPa 0,0 l/m 0 min 2 min 96 W/m 22,5 km/h (4 Bft) 97,87 %
10.11.2018 13:54 12,6 C 11,7 C 11,1 C 95 % 1000,9 hPa 0,0 l/m 0 min 2 min 100 W/m 16,1 km/h (3 Bft) 97,87 %
10.11.2018 13:56 12,6 C 11,7 C 11,1 C 95 % 1000,9 hPa 0,0 l/m 0 min 2 min 102 W/m 12,9 km/h (3 Bft) 95,65 %
10.11.2018 13:58 12,6 C 11,7 C 11,1 C 96 % 1000,8 hPa 0,0 l/m 0 min 2 min 101 W/m 22,5 km/h (4 Bft) 93,62 %
10.11.2018 14:00 12,6 C 11,7 C 11,1 C 96 % 1000,8 hPa 0,0 l/m 0 min 0 min 96 W/m 19,3 km/h (3 Bft) 91,49 %
10.11.2018 14:02 12,7 C 11,7 C 11,1 C 96 % 1000,8 hPa 0,0 l/m 0 min 0 min 87 W/m 19,3 km/h (3 Bft) 95,74 %
10.11.2018 14:04 12,7 C 11,7 C 11,1 C 96 % 1000,8 hPa 0,0 l/m 0 min 2 min 77 W/m 16,1 km/h (3 Bft) 95,74 %
10.11.2018 14:06 12,7 C 11,7 C 11,1 C 96 % 1000,8 hPa 0,0 l/m 0 min 2 min 69 W/m 16,1 km/h (3 Bft) 97,87 %
10.11.2018 14:08 12,7 C 11,7 C 11,1 C 96 % 1000,7 hPa 0,0 l/m 0 min 2 min 67 W/m 19,3 km/h (3 Bft) 95,74 %
10.11.2018 14:10 12,7 C 11,7 C 11,1 C 96 % 1000,7 hPa 0,0 l/m 0 min 0 min 64 W/m 9,7 km/h (2 Bft) 97,87 %
10.11.2018 14:12 12,7 C 11,7 C 11,1 C 96 % 1000,7 hPa 0,0 l/m 0 min 0 min 59 W/m 29,0 km/h (5 Bft) 95,74 %
10.11.2018 14:14 12,7 C 11,7 C 11,1 C 96 % 1000,7 hPa 0,0 l/m 0 min 2 min 54 W/m 9,7 km/h (2 Bft) 95,74 %
10.11.2018 14:16 12,7 C 11,7 C 11,1 C 96 % 1000,6 hPa 0,0 l/m 0 min 2 min 51 W/m 22,5 km/h (4 Bft) 97,87 %
10.11.2018 14:18 12,7 C 11,7 C 11,1 C 96 % 1000,6 hPa 0,0 l/m 0 min 0 min 53 W/m 9,7 km/h (2 Bft) 97,87 %
10.11.2018 14:20 12,6 C 11,7 C 11,1 C 96 % 1000,6 hPa 0,0 l/m 0 min 2 min 52 W/m 12,9 km/h (3 Bft) 97,83 %
10.11.2018 14:22 12,6 C 11,7 C 11,1 C 96 % 1000,6 hPa 0,0 l/m 0 min 2 min 47 W/m 16,1 km/h (3 Bft) 95,74 %
10.11.2018 14:24 12,6 C 11,7 C 11,1 C 96 % 1000,6 hPa 0,0 l/m 0 min 2 min 45 W/m 16,1 km/h (3 Bft) 95,74 %
10.11.2018 14:26 12,6 C 11,7 C 11,1 C 96 % 1000,6 hPa 0,0 l/m 0 min 2 min 43 W/m 16,1 km/h (3 Bft) 95,74 %
10.11.2018 14:28 12,6 C 11,7 C 11,1 C 96 % 1000,7 hPa 0,0 l/m 0 min 2 min 42 W/m 9,7 km/h (2 Bft) 95,74 %
10.11.2018 14:30 12,6 C 11,7 C 11,1 C 96 % 1000,7 hPa 0,0 l/m 0 min 2 min 40 W/m 12,9 km/h (3 Bft) 93,62 %
10.11.2018 14:32 12,6 C 11,7 C 11,1 C 96 % 1000,6 hPa 0,0 l/m 0 min 2 min 39 W/m 9,7 km/h (2 Bft) 95,65 %
10.11.2018 14:34 12,6 C 11,7 C 11,1 C 96 % 1000,7 hPa 0,0 l/m 0 min 2 min 36 W/m 6,4 km/h (2 Bft) 95,74 %
10.11.2018 14:36 12,6 C 11,7 C 11,1 C 96 % 1000,7 hPa 0,0 l/m 0 min 2 min 33 W/m 16,1 km/h (3 Bft) 93,62 %
10.11.2018 14:38 12,6 C 11,7 C 11,1 C 96 % 1000,7 hPa 0,0 l/m 0 min 2 min 33 W/m 12,9 km/h (3 Bft) 93,62 %
10.11.2018 14:40 12,6 C 11,7 C 11,1 C 96 % 1000,7 hPa 0,0 l/m 0 min 2 min 34 W/m 19,3 km/h (3 Bft) 95,74 %
10.11.2018 14:42 12,6 C 11,7 C 11,1 C 96 % 1000,6 hPa 0,0 l/m 0 min 2 min 33 W/m 9,7 km/h (2 Bft) 95,74 %
10.11.2018 14:44 12,6 C 11,7 C 11,1 C 96 % 1000,6 hPa 0,0 l/m 0 min 2 min 34 W/m 9,7 km/h (2 Bft) 95,65 %
10.11.2018 14:46 12,6 C 11,7 C 11,1 C 96 % 1000,6 hPa 0,0 l/m 0 min 2 min 35 W/m 16,1 km/h (3 Bft) 95,74 %
10.11.2018 14:48 12,6 C 11,7 C 11,1 C 96 % 1000,5 hPa 0,2 l/m 0 min 2 min 37 W/m 9,7 km/h (2 Bft) 95,74 %
10.11.2018 14:50 12,6 C 11,7 C 11,1 C 96 % 1000,4 hPa 0,0 l/m 0 min 2 min 37 W/m 9,7 km/h (2 Bft) 95,74 %
10.11.2018 14:52 12,6 C 11,7 C 11,1 C 97 % 1000,6 hPa 0,0 l/m 0 min 2 min 37 W/m 12,9 km/h (3 Bft) 97,87 %
10.11.2018 14:54 12,6 C 11,7 C 11,1 C 97 % 1000,5 hPa 0,0 l/m 0 min 2 min 34 W/m 16,1 km/h (3 Bft) 97,87 %
10.11.2018 14:56 12,6 C 11,7 C 11,1 C 97 % 1000,5 hPa 0,2 l/m 0 min 2 min 33 W/m 16,1 km/h (3 Bft) 97,83 %
10.11.2018 14:58 12,6 C 11,7 C 11,1 C 97 % 1000,5 hPa 0,0 l/m 0 min 2 min 31 W/m 9,7 km/h (2 Bft) 97,87 %
10.11.2018 15:00 12,6 C 11,7 C 11,1 C 97 % 1000,4 hPa 0,0 l/m 0 min 2 min 26 W/m 16,1 km/h (3 Bft) 97,87 %
10.11.2018 15:02 12,6 C 11,7 C 11,1 C 97 % 1000,4 hPa 0,0 l/m 0 min 2 min 24 W/m 12,9 km/h (3 Bft) 97,87 %
10.11.2018 15:04 12,6 C 11,7 C 11,1 C 97 % 1000,2 hPa 0,0 l/m 0 min 2 min 29 W/m 22,5 km/h (4 Bft) 97,62 %
10.11.2018 15:06 12,6 C 11,7 C 11,1 C 97 % 1000,1 hPa 0,0 l/m 0 min 2 min 38 W/m 22,5 km/h (4 Bft) 97,83 %
10.11.2018 15:08 12,6 C 11,7 C 11,1 C 97 % 1000,1 hPa 0,0 l/m 0 min 2 min 40 W/m 19,3 km/h (3 Bft) 94,34 %
10.11.2018 15:10 12,6 C 11,7 C 11,1 C 97 % 1000,0 hPa 0,0 l/m 0 min 2 min 37 W/m 9,7 km/h (2 Bft) 95,74 %
10.11.2018 15:12 12,6 C 11,7 C 11,1 C 97 % 1000,0 hPa 0,0 l/m 0 min 0 min 33 W/m 16,1 km/h (3 Bft) 93,62 %
10.11.2018 15:14 12,6 C 11,7 C 11,1 C 97 % 1000,0 hPa 0,0 l/m 0 min 0 min 30 W/m 16,1 km/h (3 Bft) 97,87 %
10.11.2018 15:16 12,6 C 11,7 C 11,1 C 97 % 999,9 hPa 0,0 l/m 0 min 0 min 28 W/m 16,1 km/h (3 Bft) 97,73 %
10.11.2018 15:18 12,6 C 11,7 C 11,1 C 97 % 999,9 hPa 0,0 l/m 0 min 0 min 29 W/m 22,5 km/h (4 Bft) 95,65 %
10.11.2018 15:20 12,6 C 11,7 C 11,1 C 97 % 1000,0 hPa 0,0 l/m 0 min 2 min 27 W/m 22,5 km/h (4 Bft) 97,87 %
10.11.2018 15:22 12,6 C 11,7 C 11,1 C 97 % 999,9 hPa 0,0 l/m 0 min 0 min 25 W/m 12,9 km/h (3 Bft) 100,00 %
10.11.2018 15:24 12,6 C 11,7 C 11,1 C 97 % 999,9 hPa 0,0 l/m 0 min 0 min 20 W/m 22,5 km/h (4 Bft) 100,00 %
10.11.2018 15:26 12,6 C 11,7 C 11,1 C 97 % 999,9 hPa 0,0 l/m 0 min 0 min 13 W/m 12,9 km/h (3 Bft) 95,74 %
10.11.2018 15:28 12,6 C 11,7 C 11,1 C 97 % 999,8 hPa 0,0 l/m 0 min 0 min 13 W/m 22,5 km/h (4 Bft) 97,83 %
10.11.2018 15:30 12,6 C 11,7 C 11,1 C 97 % 999,8 hPa 0,0 l/m 0 min 0 min 12 W/m 16,1 km/h (3 Bft) 97,87 %
10.11.2018 15:32 12,6 C 11,7 C 11,1 C 97 % 999,8 hPa 0,0 l/m 0 min 0 min 14 W/m 19,3 km/h (3 Bft) 100,00 %
10.11.2018 15:34 12,6 C 11,7 C 11,1 C 97 % 999,8 hPa 0,0 l/m 0 min 0 min 12 W/m 22,5 km/h (4 Bft) 97,87 %
10.11.2018 15:36 12,6 C 11,7 C 11,1 C 97 % 999,9 hPa 0,0 l/m 0 min 0 min 12 W/m 19,3 km/h (3 Bft) 100,00 %
10.11.2018 15:38 12,6 C 11,7 C 11,1 C 97 % 999,9 hPa 0,0 l/m 0 min 0 min 11 W/m 22,5 km/h (4 Bft) 95,74 %
10.11.2018 15:40 12,6 C 11,7 C 11,1 C 97 % 999,9 hPa 0,0 l/m 0 min 0 min 9 W/m 16,1 km/h (3 Bft) 100,00 %
10.11.2018 15:42 12,6 C 11,7 C 11,1 C 97 % 999,9 hPa 0,0 l/m 0 min 0 min 11 W/m 9,7 km/h (2 Bft) 100,00 %
10.11.2018 15:44 12,6 C 11,7 C 11,1 C 97 % 999,8 hPa 0,0 l/m 0 min 2 min 12 W/m 12,9 km/h (3 Bft) 100,00 %
10.11.2018 15:46 12,6 C 11,7 C 11,1 C 97 % 999,8 hPa 0,0 l/m 0 min 2 min 12 W/m 9,7 km/h (2 Bft) 100,00 %
10.11.2018 15:48 12,6 C 11,7 C 11,1 C 97 % 999,8 hPa 0,0 l/m 0 min 2 min 11 W/m 19,3 km/h (3 Bft) 100,00 %
10.11.2018 15:50 12,6 C 11,7 C 11,1 C 97 % 999,9 hPa 0,0 l/m 0 min 2 min 9 W/m 12,9 km/h (3 Bft) 100,00 %
10.11.2018 15:52 12,6 C 11,7 C 11,1 C 97 % 999,9 hPa 0,0 l/m 0 min 0 min 11 W/m 19,3 km/h (3 Bft) 100,00 %
10.11.2018 15:54 12,6 C 11,7 C 11,1 C 97 % 999,9 hPa 0,0 l/m 0 min 0 min 12 W/m 16,1 km/h (3 Bft) 100,00 %
10.11.2018 15:56 12,6 C 11,7 C 11,1 C 97 % 1000,0 hPa 0,0 l/m 0 min 2 min 13 W/m 16,1 km/h (3 Bft) 98,28 %
10.11.2018 15:58 12,6 C 11,7 C 11,1 C 97 % 999,9 hPa 0,0 l/m 0 min 0 min 13 W/m 19,3 km/h (3 Bft) 97,87 %
10.11.2018 16:00 12,6 C 11,7 C 11,1 C 97 % 999,9 hPa 0,0 l/m 0 min 0 min 18 W/m 25,7 km/h (4 Bft) 95,74 %
10.11.2018 16:02 12,6 C 11,7 C 11,1 C 97 % 999,9 hPa 0,0 l/m 0 min 0 min 20 W/m 25,7 km/h (4 Bft) 95,74 %
10.11.2018 16:04 12,6 C 11,7 C 11,1 C 97 % 999,8 hPa 0,0 l/m 0 min 0 min 22 W/m 16,1 km/h (3 Bft) 97,87 %
10.11.2018 16:06 12,7 C 11,7 C 11,1 C 97 % 999,9 hPa 0,0 l/m 0 min 0 min 26 W/m 19,3 km/h (3 Bft) 98,31 %
10.11.2018 16:08 12,7 C 11,7 C 11,1 C 97 % 999,9 hPa 0,0 l/m 0 min 0 min 25 W/m 12,9 km/h (3 Bft) 97,14 %
10.11.2018 16:10 12,7 C 11,7 C 11,1 C 97 % 999,8 hPa 0,0 l/m 0 min 0 min 21 W/m 19,3 km/h (3 Bft) 95,74 %
10.11.2018 16:12 12,7 C 11,7 C 11,1 C 97 % 999,9 hPa 0,0 l/m 0 min 0 min 20 W/m 22,5 km/h (4 Bft) 97,87 %
10.11.2018 16:14 12,7 C 11,7 C 11,1 C 97 % 999,9 hPa 0,0 l/m 0 min 0 min 19 W/m 25,7 km/h (4 Bft) 97,87 %
10.11.2018 16:16 12,7 C 11,7 C 11,1 C 97 % 999,9 hPa 0,0 l/m 0 min 0 min 18 W/m 12,9 km/h (3 Bft) 97,87 %
10.11.2018 16:18 12,7 C 11,7 C 11,1 C 97 % 999,9 hPa 0,0 l/m 0 min 0 min 17 W/m 19,3 km/h (3 Bft) 97,83 %
10.11.2018 16:20 12,7 C 11,7 C 11,1 C 97 % 999,9 hPa 0,0 l/m 0 min 0 min 14 W/m 19,3 km/h (3 Bft) 95,74 %
10.11.2018 16:22 12,7 C 11,7 C 11,1 C 97 % 999,9 hPa 0,0 l/m 0 min 0 min 12 W/m 9,7 km/h (2 Bft) 97,87 %
10.11.2018 16:24 12,7 C 11,7 C 11,1 C 97 % 999,9 hPa 0,0 l/m 0 min 0 min 11 W/m 9,7 km/h (2 Bft) 97,87 %
10.11.2018 16:26 12,7 C 11,7 C 11,1 C 97 % 1000,0 hPa 0,0 l/m 0 min 0 min 9 W/m 16,1 km/h (3 Bft) 97,87 %
10.11.2018 16:28 12,7 C 11,7 C 11,1 C 97 % 1000,0 hPa 0,0 l/m 0 min 0 min 9 W/m 16,1 km/h (3 Bft) 91,49 %
10.11.2018 16:30 12,7 C 11,7 C 11,1 C 97 % 1000,1 hPa 0,0 l/m 0 min 0 min 8 W/m 22,5 km/h (4 Bft) 93,48 %
10.11.2018 16:32 12,7 C 11,7 C 11,1 C 97 % 1000,1 hPa 0,0 l/m 0 min 0 min 6 W/m 12,9 km/h (3 Bft) 97,92 %
10.11.2018 16:34 12,7 C 11,7 C 11,1 C 97 % 1000,1 hPa 0,0 l/m 0 min 0 min 3 W/m 12,9 km/h (3 Bft) 95,74 %
10.11.2018 16:36 12,7 C 11,7 C 11,1 C 97 % 1000,0 hPa 0,0 l/m 0 min 0 min 0 W/m 16,1 km/h (3 Bft) 94,92 %
10.11.2018 16:38 12,8 C 11,7 C 11,1 C 97 % 1000,1 hPa 0,0 l/m 0 min 0 min 0 W/m 16,1 km/h (3 Bft) 97,14 %
10.11.2018 16:40 12,8 C 11,7 C 11,1 C 97 % 1000,1 hPa 0,0 l/m 0 min 0 min 0 W/m 22,5 km/h (4 Bft) 97,87 %
10.11.2018 16:42 12,8 C 11,7 C 11,1 C 97 % 1000,2 hPa 0,0 l/m 0 min 0 min 0 W/m 16,1 km/h (3 Bft) 97,83 %
10.11.2018 16:44 12,8 C 11,7 C 11,1 C 97 % 1000,3 hPa 0,0 l/m 0 min 0 min 0 W/m 16,1 km/h (3 Bft) 95,74 %
10.11.2018 16:46 12,8 C 11,7 C 11,1 C 97 % 1000,3 hPa 0,0 l/m 0 min 2 min 0 W/m 19,3 km/h (3 Bft) 97,92 %
10.11.2018 16:48 12,8 C 11,7 C 11,1 C 97 % 1000,2 hPa 0,0 l/m 0 min 0 min 0 W/m 16,1 km/h (3 Bft) 100,00 %
10.11.2018 16:50 12,8 C 11,7 C 11,1 C 97 % 1000,2 hPa 0,0 l/m 0 min 0 min 0 W/m 9,7 km/h (2 Bft) 97,87 %
10.11.2018 16:52 12,8 C 11,7 C 11,1 C 97 % 1000,2 hPa 0,0 l/m 0 min 0 min 0 W/m 16,1 km/h (3 Bft) 97,83 %
10.11.2018 16:54 12,8 C 11,7 C 11,1 C 96 % 1000,3 hPa 0,0 l/m 0 min 0 min 0 W/m 12,9 km/h (3 Bft) 95,74 %
10.11.2018 16:56 12,8 C 11,7 C 11,1 C 96 % 1000,3 hPa 0,0 l/m 0 min 2 min 0 W/m 12,9 km/h (3 Bft) 97,87 %
10.11.2018 16:58 12,8 C 11,7 C 11,1 C 97 % 1000,4 hPa 0,0 l/m 0 min 2 min 0 W/m 25,7 km/h (4 Bft) 97,87 %
10.11.2018 17:00 12,8 C 11,7 C 11,1 C 97 % 1000,4 hPa 0,0 l/m 0 min 2 min 0 W/m 19,3 km/h (3 Bft) 97,87 %
10.11.2018 17:02 12,8 C 11,7 C 11,1 C 96 % 1000,5 hPa 0,0 l/m 0 min 2 min 0 W/m 19,3 km/h (3 Bft) 95,92 %
10.11.2018 17:04 12,8 C 11,7 C 11,1 C 96 % 1000,5 hPa 0,2 l/m 0 min 2 min 0 W/m 19,3 km/h (3 Bft) 97,87 %
10.11.2018 17:06 12,8 C 11,7 C 11,1 C 96 % 1000,5 hPa 0,0 l/m 0 min 2 min 0 W/m 12,9 km/h (3 Bft) 93,62 %
10.11.2018 17:08 12,8 C 11,7 C 11,1 C 96 % 1000,5 hPa 0,0 l/m 0 min 2 min 0 W/m 9,7 km/h (2 Bft) 97,87 %
10.11.2018 17:10 12,8 C 11,7 C 11,1 C 96 % 1000,5 hPa 0,0 l/m 0 min 2 min 0 W/m 9,7 km/h (2 Bft) 97,87 %
10.11.2018 17:12 12,8 C 11,7 C 11,1 C 96 % 1000,5 hPa 0,0 l/m 0 min 2 min 0 W/m 12,9 km/h (3 Bft) 97,87 %
10.11.2018 17:14 12,8 C 11,7 C 11,1 C 96 % 1000,5 hPa 0,0 l/m 0 min 0 min 0 W/m 6,4 km/h (2 Bft) 97,87 %
10.11.2018 17:16 12,8 C 11,7 C 11,1 C 96 % 1000,5 hPa 0,0 l/m 0 min 0 min 0 W/m 16,1 km/h (3 Bft) 97,83 %
10.11.2018 17:18 12,8 C 11,7 C 11,1 C 96 % 1000,4 hPa 0,0 l/m 0 min 0 min 0 W/m 12,9 km/h (3 Bft) 100,00 %
10.11.2018 17:20 12,8 C 11,7 C 11,1 C 96 % 1000,4 hPa 0,0 l/m 0 min 0 min 0 W/m 12,9 km/h (3 Bft) 95,74 %
10.11.2018 17:22 12,8 C 11,7 C 11,1 C 96 % 1000,4 hPa 0,0 l/m 0 min 0 min 0 W/m 9,7 km/h (2 Bft) 97,87 %
10.11.2018 17:24 12,8 C 11,7 C 11,1 C 96 % 1000,5 hPa 0,0 l/m 0 min 0 min 0 W/m 9,7 km/h (2 Bft) 97,87 %
10.11.2018 17:26 12,8 C 11,7 C 11,1 C 96 % 1000,4 hPa 0,0 l/m 0 min 0 min 0 W/m 6,4 km/h (2 Bft) 95,65 %
10.11.2018 17:28 12,8 C 11,7 C 11,1 C 96 % 1000,4 hPa 0,0 l/m 0 min 0 min 0 W/m 6,4 km/h (2 Bft) 97,87 %
10.11.2018 17:30 12,8 C 11,7 C 11,1 C 96 % 1000,4 hPa 0,0 l/m 0 min 0 min 0 W/m 6,4 km/h (2 Bft) 97,87 %
10.11.2018 17:32 12,8 C 11,7 C 11,1 C 96 % 1000,4 hPa 0,0 l/m 0 min 0 min 0 W/m 9,7 km/h (2 Bft) 97,96 %
10.11.2018 17:34 12,8 C 11,7 C 11,1 C 96 % 1000,4 hPa 0,0 l/m 0 min 0 min 0 W/m 9,7 km/h (2 Bft) 97,87 %
10.11.2018 17:36 12,8 C 11,7 C 11,1 C 96 % 1000,4 hPa 0,0 l/m 0 min 0 min 0 W/m 6,4 km/h (2 Bft) 95,74 %
10.11.2018 17:38 12,8 C 11,7 C 11,1 C 96 % 1000,4 hPa 0,0 l/m 0 min 0 min 0 W/m 3,2 km/h (1 Bft) 86,96 %
10.11.2018 17:40 12,8 C 11,7 C 11,1 C 96 % 1000,4 hPa 0,0 l/m 0 min 0 min 0 W/m 9,7 km/h (2 Bft) 97,87 %
10.11.2018 17:42 12,8 C 11,7 C 11,1 C 96 % 1000,4 hPa 0,0 l/m 0 min 0 min 0 W/m 6,4 km/h (2 Bft) 100,00 %
10.11.2018 17:44 12,8 C 11,7 C 11,1 C 96 % 1000,4 hPa 0,0 l/m 0 min 0 min 0 W/m 9,7 km/h (2 Bft) 100,00 %
10.11.2018 17:46 12,8 C 11,7 C 11,1 C 96 % 1000,4 hPa 0,0 l/m 0 min 0 min 0 W/m 6,4 km/h (2 Bft) 97,87 %
10.11.2018 17:48 12,8 C 11,7 C 11,1 C 96 % 1000,3 hPa 0,0 l/m 0 min 0 min 0 W/m 9,7 km/h (2 Bft) 97,87 %
10.11.2018 17:50 12,8 C 11,7 C 11,1 C 96 % 1000,3 hPa 0,0 l/m 0 min 0 min 0 W/m 6,4 km/h (2 Bft) 97,83 %
10.11.2018 17:52 12,8 C 11,7 C 11,1 C 96 % 1000,3 hPa 0,0 l/m 0 min 0 min 0 W/m 12,9 km/h (3 Bft) 95,74 %
10.11.2018 17:54 12,8 C 11,7 C 11,1 C 96 % 1000,4 hPa 0,0 l/m 0 min 0 min 0 W/m 6,4 km/h (2 Bft) 97,87 %
10.11.2018 17:56 12,8 C 11,7 C 11,1 C 96 % 1000,4 hPa 0,0 l/m 0 min 0 min 0 W/m 9,7 km/h (2 Bft) 95,74 %
10.11.2018 17:58 12,8 C 11,7 C 11,1 C 96 % 1000,4 hPa 0,0 l/m 0 min 0 min 0 W/m 9,7 km/h (2 Bft) 97,87 %
10.11.2018 18:00 12,7 C 11,7 C 11,1 C 96 % 1000,4 hPa 0,0 l/m 0 min 0 min 0 W/m 3,2 km/h (1 Bft) 95,74 %
10.11.2018 18:02 12,7 C 11,7 C 11,1 C 96 % 1000,4 hPa 0,0 l/m 0 min 0 min 0 W/m 6,4 km/h (2 Bft) 97,92 %
10.11.2018 18:04 12,7 C 11,7 C 11,1 C 96 % 1000,4 hPa 0,0 l/m 0 min 0 min 0 W/m 6,4 km/h (2 Bft) 97,87 %
10.11.2018 18:08 12,7 C 11,1 C 10,6 C 96 % 1000,4 hPa 0,0 l/m 0 min 0 min 0 W/m 3,2 km/h (1 Bft) 96,81 %
10.11.2018 18:10 12,7 C 11,1 C 10,6 C 96 % 1000,5 hPa 0,0 l/m 0 min 0 min 0 W/m 12,9 km/h (3 Bft) 97,87 %
10.11.2018 18:12 12,7 C 11,1 C 10,6 C 96 % 1000,5 hPa 0,0 l/m 0 min 0 min 0 W/m 6,4 km/h (2 Bft) 97,87 %
10.11.2018 18:14 12,7 C 11,1 C 10,6 C 95 % 1000,4 hPa 0,0 l/m 0 min 0 min 0 W/m 9,7 km/h (2 Bft) 97,83 %
10.11.2018 18:16 12,7 C 11,1 C 10,6 C 96 % 1000,5 hPa 0,0 l/m 0 min 0 min 0 W/m 6,4 km/h (2 Bft) 97,92 %
10.11.2018 18:18 12,7 C 11,1 C 10,6 C 95 % 1000,5 hPa 0,0 l/m 0 min 0 min 0 W/m 9,7 km/h (2 Bft) 97,87 %
10.11.2018 18:20 12,7 C 11,7 C 10,6 C 95 % 1000,5 hPa 0,0 l/m 0 min 0 min 0 W/m 9,7 km/h (2 Bft) 97,87 %
10.11.2018 18:22 12,6 C 11,7 C 10,6 C 95 % 1000,5 hPa 0,0 l/m 0 min 0 min 0 W/m 9,7 km/h (2 Bft) 100,00 %
10.11.2018 18:24 12,6 C 11,7 C 10,6 C 95 % 1000,5 hPa 0,0 l/m 0 min 0 min 0 W/m 3,2 km/h (1 Bft) 97,83 %
10.11.2018 18:26 12,6 C 11,7 C 10,6 C 95 % 1000,5 hPa 0,0 l/m 0 min 0 min 0 W/m 9,7 km/h (2 Bft) 100,00 %
10.11.2018 18:28 12,6 C 11,7 C 10,6 C 95 % 1000,6 hPa 0,0 l/m 0 min 0 min 0 W/m 3,2 km/h (1 Bft) 96,55 %
10.11.2018 18:30 12,6 C 11,7 C 10,6 C 95 % 1000,6 hPa 0,0 l/m 0 min 0 min 0 W/m 9,7 km/h (2 Bft) 97,87 %
10.11.2018 18:32 12,6 C 11,7 C 11,1 C 95 % 1000,6 hPa 0,0 l/m 0 min 0 min 0 W/m 3,2 km/h (1 Bft) 97,92 %
10.11.2018 18:34 12,6 C 11,7 C 11,1 C 95 % 1000,6 hPa 0,0 l/m 0 min 0 min 0 W/m 12,9 km/h (3 Bft) 93,62 %
10.11.2018 18:36 12,6 C 11,7 C 11,1 C 95 % 1000,6 hPa 0,0 l/m 0 min 0 min 0 W/m 6,4 km/h (2 Bft) 98,28 %
10.11.2018 18:38 12,6 C 11,7 C 11,1 C 95 % 1000,6 hPa 0,0 l/m 0 min 0 min 0 W/m 6,4 km/h (2 Bft) 94,44 %
10.11.2018 18:40 12,6 C 11,7 C 11,1 C 95 % 1000,6 hPa 0,0 l/m 0 min 0 min 0 W/m 9,7 km/h (2 Bft) 95,65 %
10.11.2018 18:42 12,6 C 11,7 C 11,1 C 95 % 1000,6 hPa 0,0 l/m 0 min 0 min 0 W/m 9,7 km/h (2 Bft) 95,74 %
10.11.2018 18:44 12,6 C 11,7 C 11,1 C 95 % 1000,6 hPa 0,0 l/m 0 min 0 min 0 W/m 6,4 km/h (2 Bft) 95,74 %
10.11.2018 18:46 12,6 C 11,7 C 11,1 C 95 % 1000,7 hPa 0,0 l/m 0 min 0 min 0 W/m 12,9 km/h (3 Bft) 97,96 %
10.11.2018 18:48 12,6 C 11,7 C 11,1 C 95 % 1000,7 hPa 0,0 l/m 0 min 0 min 0 W/m 6,4 km/h (2 Bft) 97,87 %
10.11.2018 18:50 12,6 C 11,7 C 11,1 C 95 % 1000,6 hPa 0,0 l/m 0 min 0 min 0 W/m 12,9 km/h (3 Bft) 97,83 %
10.11.2018 18:52 12,6 C 11,7 C 11,1 C 95 % 1000,6 hPa 0,0 l/m 0 min 0 min 0 W/m 16,1 km/h (3 Bft) 97,87 %
10.11.2018 18:54 12,6 C 11,7 C 11,1 C 95 % 1000,6 hPa 0,0 l/m 0 min 0 min 0 W/m 9,7 km/h (2 Bft) 93,62 %
10.11.2018 18:56 12,6 C 11,7 C 11,1 C 95 % 1000,6 hPa 0,0 l/m 0 min 0 min 0 W/m 6,4 km/h (2 Bft) 97,87 %
10.11.2018 18:58 12,6 C 11,7 C 11,1 C 95 % 1000,6 hPa 0,0 l/m 0 min 0 min 0 W/m 12,9 km/h (3 Bft) 97,87 %
10.11.2018 19:00 12,6 C 11,7 C 11,1 C 95 % 1000,6 hPa 0,0 l/m 0 min 0 min 0 W/m 9,7 km/h (2 Bft) 97,87 %
10.11.2018 19:02 12,7 C 11,7 C 11,1 C 95 % 1000,7 hPa 0,0 l/m 0 min 2 min 0 W/m 9,7 km/h (2 Bft) 95,83 %
10.11.2018 19:04 12,7 C 11,7 C 11,1 C 95 % 1000,7 hPa 0,0 l/m 0 min 2 min 0 W/m 12,9 km/h (3 Bft) 97,83 %
10.11.2018 19:06 12,7 C 11,7 C 11,1 C 95 % 1000,6 hPa 0,0 l/m 0 min 2 min 0 W/m 16,1 km/h (3 Bft) 96,61 %
10.11.2018 19:08 12,7 C 11,7 C 11,1 C 95 % 1000,6 hPa 0,0 l/m 0 min 2 min 0 W/m 12,9 km/h (3 Bft) 100,00 %
10.11.2018 19:10 12,7 C 11,7 C 11,1 C 96 % 1000,5 hPa 0,0 l/m 0 min 2 min 0 W/m 9,7 km/h (2 Bft) 97,87 %
10.11.2018 19:12 12,7 C 11,7 C 11,1 C 96 % 1000,6 hPa 0,0 l/m 0 min 0 min 0 W/m 16,1 km/h (3 Bft) 95,74 %
10.11.2018 19:14 12,7 C 11,7 C 11,1 C 95 % 1000,6 hPa 0,0 l/m 0 min 0 min 0 W/m 16,1 km/h (3 Bft) 95,74 %
10.11.2018 19:16 12,7 C 11,7 C 11,1 C 95 % 1000,6 hPa 0,0 l/m 0 min 0 min 0 W/m 12,9 km/h (3 Bft) 97,83 %
10.11.2018 19:18 12,7 C 11,7 C 11,1 C 95 % 1000,6 hPa 0,0 l/m 0 min 0 min 0 W/m 12,9 km/h (3 Bft) 97,87 %
10.11.2018 19:20 12,7 C 11,7 C 11,1 C 95 % 1000,7 hPa 0,0 l/m 0 min 0 min 0 W/m 9,7 km/h (2 Bft) 95,74 %
10.11.2018 19:22 12,8 C 11,7 C 11,1 C 95 % 1000,7 hPa 0,0 l/m 0 min 0 min 0 W/m 9,7 km/h (2 Bft) 97,87 %
10.11.2018 19:24 12,8 C 11,7 C 11,1 C 95 % 1000,6 hPa 0,0 l/m 0 min 0 min 0 W/m 9,7 km/h (2 Bft) 100,00 %
10.11.2018 19:26 12,8 C 11,7 C 11,1 C 95 % 1000,6 hPa 0,0 l/m 0 min 0 min 0 W/m 12,9 km/h (3 Bft) 95,65 %
10.11.2018 19:28 12,8 C 11,7 C 11,1 C 95 % 1000,7 hPa 0,0 l/m 0 min 0 min 0 W/m 9,7 km/h (2 Bft) 100,00 %
10.11.2018 19:30 12,8 C 11,7 C 11,1 C 95 % 1000,7 hPa 0,0 l/m 0 min 0 min 0 W/m 22,5 km/h (4 Bft) 97,87 %
10.11.2018 19:32 12,8 C 11,7 C 11,1 C 95 % 1000,7 hPa 0,0 l/m 0 min 2 min 0 W/m 22,5 km/h (4 Bft) 97,87 %
10.11.2018 19:34 12,8 C 11,7 C 11,1 C 95 % 1000,6 hPa 0,0 l/m 0 min 2 min 0 W/m 12,9 km/h (3 Bft) 97,87 %
10.11.2018 19:36 12,8 C 11,7 C 11,1 C 95 % 1000,7 hPa 0,2 l/m 0 min 2 min 0 W/m 25,7 km/h (4 Bft) 98,28 %
10.11.2018 19:38 12,8 C 11,7 C 11,1 C 95 % 1000,7 hPa 0,0 l/m 0 min 0 min 0 W/m 16,1 km/h (3 Bft) 97,30 %
10.11.2018 19:40 12,8 C 11,7 C 11,1 C 95 % 1000,6 hPa 0,0 l/m 0 min 0 min 0 W/m 19,3 km/h (3 Bft) 97,87 %
10.11.2018 19:42 12,8 C 11,7 C 11,1 C 95 % 1000,6 hPa 0,0 l/m 0 min 0 min 0 W/m 22,5 km/h (4 Bft) 97,87 %
10.11.2018 19:44 12,8 C 11,7 C 11,1 C 95 % 1000,6 hPa 0,0 l/m 0 min 2 min 0 W/m 12,9 km/h (3 Bft) 97,87 %
10.11.2018 19:46 12,8 C 11,7 C 11,1 C 95 % 1000,6 hPa 0,0 l/m 0 min 2 min 0 W/m 16,1 km/h (3 Bft) 91,49 %
10.11.2018 19:48 12,8 C 11,7 C 11,1 C 95 % 1000,6 hPa 0,0 l/m 0 min 2 min 0 W/m 16,1 km/h (3 Bft) 95,65 %
10.11.2018 19:50 12,8 C 11,7 C 11,1 C 95 % 1000,6 hPa 0,0 l/m 0 min 2 min 0 W/m 16,1 km/h (3 Bft) 97,87 %
10.11.2018 19:52 12,9 C 11,7 C 11,1 C 95 % 1000,6 hPa 0,0 l/m 0 min 0 min 0 W/m 12,9 km/h (3 Bft) 97,87 %
10.11.2018 19:54 12,8 C 11,7 C 11,1 C 95 % 1000,6 hPa 0,0 l/m 0 min 2 min 0 W/m 16,1 km/h (3 Bft) 97,87 %
10.11.2018 19:56 12,9 C 11,7 C 11,1 C 95 % 1000,7 hPa 0,0 l/m 0 min 2 min 0 W/m 12,9 km/h (3 Bft) 97,87 %
10.11.2018 19:58 12,9 C 11,7 C 11,1 C 95 % 1000,6 hPa 0,0 l/m 0 min 2 min 0 W/m 19,3 km/h (3 Bft) 97,87 %
10.11.2018 20:00 12,9 C 11,7 C 11,1 C 95 % 1000,6 hPa 0,0 l/m 0 min 2 min 0 W/m 25,7 km/h (4 Bft) 97,83 %
10.11.2018 20:02 12,9 C 11,7 C 11,1 C 95 % 1000,6 hPa 0,0 l/m 0 min 2 min 0 W/m 22,5 km/h (4 Bft) 97,92 %
10.11.2018 20:04 12,9 C 11,7 C 11,1 C 94 % 1000,6 hPa 0,0 l/m 0 min 0 min 0 W/m 16,1 km/h (3 Bft) 97,87 %
10.11.2018 20:06 12,9 C 11,7 C 11,1 C 94 % 1000,7 hPa 0,0 l/m 0 min 2 min 0 W/m 12,9 km/h (3 Bft) 95,74 %
10.11.2018 20:08 12,9 C 11,7 C 11,1 C 94 % 1000,7 hPa 0,0 l/m 0 min 2 min 0 W/m 12,9 km/h (3 Bft) 97,87 %
10.11.2018 20:10 12,9 C 11,7 C 11,1 C 94 % 1000,8 hPa 0,0 l/m 0 min 2 min 0 W/m 22,5 km/h (4 Bft) 97,83 %
10.11.2018 20:12 12,9 C 11,7 C 11,1 C 95 % 1000,8 hPa 0,0 l/m 0 min 2 min 0 W/m 12,9 km/h (3 Bft) 97,87 %
10.11.2018 20:14 12,9 C 11,7 C 11,1 C 94 % 1000,8 hPa 0,0 l/m 0 min 2 min 0 W/m 25,7 km/h (4 Bft) 97,87 %
10.11.2018 20:16 12,9 C 11,7 C 11,1 C 94 % 1000,8 hPa 0,0 l/m 0 min 2 min 0 W/m 29,0 km/h (5 Bft) 97,92 %
10.11.2018 20:18 12,9 C 11,7 C 11,1 C 94 % 1000,8 hPa 0,0 l/m 0 min 2 min 0 W/m 16,1 km/h (3 Bft) 97,87 %
10.11.2018 20:20 12,9 C 11,7 C 11,1 C 94 % 1000,8 hPa 0,0 l/m 0 min 2 min 0 W/m 22,5 km/h (4 Bft) 97,87 %
10.11.2018 20:22 12,9 C 11,7 C 11,1 C 94 % 1000,8 hPa 0,0 l/m 0 min 2 min 0 W/m 16,1 km/h (3 Bft) 100,00 %
10.11.2018 20:24 12,9 C 11,7 C 11,1 C 94 % 1000,8 hPa 0,0 l/m 0 min 2 min 0 W/m 22,5 km/h (4 Bft) 100,00 %
10.11.2018 20:26 12,9 C 11,7 C 11,1 C 94 % 1000,7 hPa 0,0 l/m 0 min 2 min 0 W/m 19,3 km/h (3 Bft) 97,87 %
10.11.2018 20:28 12,9 C 11,7 C 11,1 C 94 % 1000,8 hPa 0,0 l/m 0 min 2 min 0 W/m 22,5 km/h (4 Bft) 100,00 %
10.11.2018 20:30 12,9 C 11,7 C 11,1 C 94 % 1000,8 hPa 0,0 l/m 0 min 2 min 0 W/m 16,1 km/h (3 Bft) 100,00 %
10.11.2018 20:32 12,9 C 11,7 C 11,1 C 94 % 1000,7 hPa 0,0 l/m 0 min 2 min 0 W/m 19,3 km/h (3 Bft) 100,00 %
10.11.2018 20:34 13,0 C 11,7 C 11,1 C 94 % 1000,8 hPa 0,0 l/m 0 min 2 min 0 W/m 19,3 km/h (3 Bft) 100,00 %
10.11.2018 20:36 12,9 C 11,7 C 11,1 C 94 % 1000,8 hPa 0,0 l/m 0 min 2 min 0 W/m 12,9 km/h (3 Bft) 100,00 %
10.11.2018 20:38 12,9 C 11,7 C 11,1 C 94 % 1000,7 hPa 0,0 l/m 0 min 2 min 0 W/m 9,7 km/h (2 Bft) 100,00 %
10.11.2018 20:40 12,9 C 11,7 C 11,1 C 94 % 1000,7 hPa 0,0 l/m 0 min 2 min 0 W/m 19,3 km/h (3 Bft) 100,00 %
10.11.2018 20:42 12,9 C 11,7 C 11,1 C 94 % 1000,7 hPa 0,0 l/m 0 min 2 min 0 W/m 16,1 km/h (3 Bft) 100,00 %
10.11.2018 20:44 12,9 C 11,7 C 11,1 C 94 % 1000,7 hPa 0,2 l/m 0 min 2 min 0 W/m 22,5 km/h (4 Bft) 100,00 %
10.11.2018 20:46 12,9 C 11,7 C 11,1 C 94 % 1000,8 hPa 0,0 l/m 0 min 2 min 0 W/m 22,5 km/h (4 Bft) 97,87 %
10.11.2018 20:48 12,9 C 11,7 C 11,1 C 94 % 1000,8 hPa 0,0 l/m 0 min 2 min 0 W/m 16,1 km/h (3 Bft) 100,00 %
10.11.2018 20:50 12,9 C 11,7 C 11,1 C 94 % 1000,8 hPa 0,0 l/m 0 min 2 min 0 W/m 16,1 km/h (3 Bft) 100,00 %
10.11.2018 20:52 12,9 C 11,7 C 11,1 C 94 % 1000,9 hPa 0,0 l/m 0 min 2 min 0 W/m 16,1 km/h (3 Bft) 97,87 %
10.11.2018 20:54 12,9 C 11,7 C 11,1 C 94 % 1000,9 hPa 0,0 l/m 0 min 2 min 0 W/m 16,1 km/h (3 Bft) 100,00 %
10.11.2018 20:56 12,9 C 11,7 C 11,1 C 95 % 1000,8 hPa 0,0 l/m 0 min 2 min 0 W/m 16,1 km/h (3 Bft) 100,00 %
10.11.2018 20:58 12,9 C 11,7 C 11,1 C 94 % 1001,0 hPa 0,0 l/m 0 min 2 min 0 W/m 16,1 km/h (3 Bft) 100,00 %
10.11.2018 21:00 12,9 C 11,1 C 11,1 C 94 % 1001,0 hPa 0,2 l/m 0 min 2 min 0 W/m 12,9 km/h (3 Bft) 100,00 %
10.11.2018 21:02 12,9 C 11,7 C 11,1 C 94 % 1001,0 hPa 0,0 l/m 0 min 2 min 0 W/m 19,3 km/h (3 Bft) 100,00 %
10.11.2018 21:04 12,8 C 11,7 C 11,1 C 95 % 1001,0 hPa 0,0 l/m 0 min 2 min 0 W/m 12,9 km/h (3 Bft) 100,00 %
10.11.2018 21:06 12,8 C 11,1 C 11,1 C 95 % 1001,1 hPa 0,0 l/m 0 min 2 min 0 W/m 9,7 km/h (2 Bft) 100,00 %
10.11.2018 21:08 12,8 C 11,1 C 11,1 C 95 % 1001,0 hPa 0,0 l/m 0 min 2 min 0 W/m 22,5 km/h (4 Bft) 100,00 %
10.11.2018 21:10 12,8 C 11,1 C 11,1 C 95 % 1001,1 hPa 0,0 l/m 0 min 2 min 0 W/m 16,1 km/h (3 Bft) 100,00 %
10.11.2018 21:12 12,8 C 11,1 C 11,1 C 95 % 1001,1 hPa 0,0 l/m 0 min 2 min 0 W/m 16,1 km/h (3 Bft) 97,83 %
10.11.2018 21:14 12,8 C 11,7 C 11,1 C 95 % 1001,1 hPa 0,2 l/m 0 min 2 min 0 W/m 29,0 km/h (5 Bft) 97,87 %
10.11.2018 21:16 12,8 C 11,1 C 11,1 C 95 % 1001,1 hPa 0,0 l/m 0 min 2 min 0 W/m 16,1 km/h (3 Bft) 95,74 %
10.11.2018 21:18 12,8 C 11,1 C 11,1 C 95 % 1001,1 hPa 0,2 l/m 0 min 2 min 0 W/m 22,5 km/h (4 Bft) 95,74 %
10.11.2018 21:20 12,8 C 11,1 C 11,1 C 95 % 1001,2 hPa 0,0 l/m 0 min 2 min 0 W/m 19,3 km/h (3 Bft) 93,62 %
10.11.2018 21:22 12,7 C 11,1 C 11,1 C 95 % 1001,1 hPa 0,0 l/m 0 min 2 min 0 W/m 16,1 km/h (3 Bft) 95,74 %
10.11.2018 21:24 12,7 C 11,1 C 10,6 C 95 % 1001,2 hPa 0,0 l/m 0 min 2 min 0 W/m 16,1 km/h (3 Bft) 97,83 %
10.11.2018 21:26 12,7 C 11,1 C 10,6 C 95 % 1001,1 hPa 0,0 l/m 0 min 2 min 0 W/m 22,5 km/h (4 Bft) 95,74 %
10.11.2018 21:28 12,7 C 11,1 C 10,6 C 95 % 1001,2 hPa 0,0 l/m 0 min 2 min 0 W/m 12,9 km/h (3 Bft) 95,74 %
10.11.2018 21:30 12,7 C 11,1 C 10,6 C 95 % 1001,1 hPa 0,0 l/m 0 min 2 min 0 W/m 25,7 km/h (4 Bft) 95,74 %
10.11.2018 21:32 12,7 C 11,1 C 10,6 C 95 % 1001,2 hPa 0,2 l/m 0 min 2 min 0 W/m 22,5 km/h (4 Bft) 93,88 %
10.11.2018 21:34 12,7 C 11,1 C 10,6 C 95 % 1001,2 hPa 0,0 l/m 0 min 2 min 0 W/m 25,7 km/h (4 Bft) 95,65 %
10.11.2018 21:36 12,6 C 11,1 C 10,6 C 95 % 1001,2 hPa 0,0 l/m 0 min 2 min 0 W/m 19,3 km/h (3 Bft) 93,62 %
10.11.2018 21:38 12,6 C 11,1 C 10,6 C 95 % 1001,1 hPa 0,0 l/m 0 min 2 min 0 W/m 22,5 km/h (4 Bft) 95,74 %
10.11.2018 21:40 12,6 C 11,1 C 10,6 C 95 % 1001,1 hPa 0,0 l/m 0 min 2 min 0 W/m 9,7 km/h (2 Bft) 95,74 %
10.11.2018 21:42 12,6 C 11,1 C 10,6 C 95 % 1001,2 hPa 0,2 l/m 0 min 0 min 0 W/m 16,1 km/h (3 Bft) 95,74 %
10.11.2018 21:44 12,6 C 11,1 C 10,6 C 95 % 1001,2 hPa 0,0 l/m 0 min 2 min 0 W/m 16,1 km/h (3 Bft) 93,62 %
10.11.2018 21:46 12,5 C 11,1 C 10,6 C 95 % 1001,2 hPa 0,0 l/m 0 min 2 min 0 W/m 12,9 km/h (3 Bft) 95,74 %
10.11.2018 21:48 12,5 C 11,1 C 10,6 C 96 % 1001,2 hPa 0,0 l/m 0 min 2 min 0 W/m 12,9 km/h (3 Bft) 91,49 %
10.11.2018 21:50 12,4 C 11,1 C 10,6 C 96 % 1001,2 hPa 0,0 l/m 0 min 2 min 0 W/m 16,1 km/h (3 Bft) 97,87 %
10.11.2018 21:52 12,4 C 11,1 C 10,6 C 96 % 1001,3 hPa 0,0 l/m 0 min 2 min 0 W/m 16,1 km/h (3 Bft) 95,74 %
10.11.2018 21:54 12,4 C 11,1 C 10,6 C 96 % 1001,3 hPa 0,0 l/m 0 min 2 min 0 W/m 12,9 km/h (3 Bft) 95,74 %
10.11.2018 21:56 12,4 C 11,1 C 10,6 C 96 % 1001,2 hPa 0,0 l/m 0 min 0 min 0 W/m 12,9 km/h (3 Bft) 95,74 %
10.11.2018 21:58 12,4 C 11,1 C 10,6 C 96 % 1001,2 hPa 0,0 l/m 0 min 0 min 0 W/m 16,1 km/h (3 Bft) 95,65 %
10.11.2018 22:00 12,3 C 11,1 C 10,6 C 96 % 1001,2 hPa 0,0 l/m 0 min 0 min 0 W/m 12,9 km/h (3 Bft) 95,74 %
10.11.2018 22:02 12,3 C 11,1 C 10,6 C 96 % 1001,3 hPa 0,0 l/m 0 min 0 min 0 W/m 9,7 km/h (2 Bft) 95,74 %
10.11.2018 22:04 12,3 C 11,1 C 10,6 C 96 % 1001,4 hPa 0,0 l/m 0 min 0 min 0 W/m 9,7 km/h (2 Bft) 95,74 %
10.11.2018 22:06 12,3 C 11,1 C 10,6 C 96 % 1001,4 hPa 0,0 l/m 0 min 2 min 0 W/m 16,1 km/h (3 Bft) 94,83 %
10.11.2018 22:08 12,3 C 11,1 C 10,6 C 96 % 1001,4 hPa 0,0 l/m 0 min 2 min 0 W/m 12,9 km/h (3 Bft) 94,44 %
10.11.2018 22:10 12,2 C 11,1 C 10,6 C 96 % 1001,4 hPa 0,0 l/m 0 min 2 min 0 W/m 9,7 km/h (2 Bft) 97,83 %
10.11.2018 22:12 12,2 C 11,1 C 10,6 C 96 % 1001,4 hPa 0,0 l/m 0 min 2 min 0 W/m 12,9 km/h (3 Bft) 100,00 %
10.11.2018 22:14 12,2 C 11,1 C 10,6 C 96 % 1001,4 hPa 0,0 l/m 0 min 2 min 0 W/m 12,9 km/h (3 Bft) 95,74 %
10.11.2018 22:16 12,2 C 10,6 C 10,6 C 96 % 1001,5 hPa 0,0 l/m 0 min 2 min 0 W/m 12,9 km/h (3 Bft) 93,62 %
10.11.2018 22:18 12,2 C 10,6 C 10,6 C 96 % 1001,5 hPa 0,0 l/m 0 min 0 min 0 W/m 16,1 km/h (3 Bft) 95,74 %
10.11.2018 22:20 12,2 C 11,1 C 10,6 C 96 % 1001,6 hPa 0,0 l/m 0 min 0 min 0 W/m 19,3 km/h (3 Bft) 100,00 %
10.11.2018 22:22 12,2 C 11,1 C 10,6 C 96 % 1001,5 hPa 0,0 l/m 0 min 0 min 0 W/m 12,9 km/h (3 Bft) 97,83 %
10.11.2018 22:24 12,2 C 11,1 C 10,6 C 96 % 1001,5 hPa 0,0 l/m 0 min 0 min 0 W/m 22,5 km/h (4 Bft) 95,74 %
10.11.2018 22:26 12,1 C 11,1 C 10,6 C 96 % 1001,5 hPa 0,0 l/m 0 min 0 min 0 W/m 16,1 km/h (3 Bft) 97,87 %
10.11.2018 22:28 12,1 C 11,1 C 10,6 C 96 % 1001,5 hPa 0,0 l/m 0 min 0 min 0 W/m 9,7 km/h (2 Bft) 95,74 %
10.11.2018 22:30 12,1 C 11,1 C 10,6 C 96 % 1001,6 hPa 0,0 l/m 0 min 0 min 0 W/m 9,7 km/h (2 Bft) 97,87 %
10.11.2018 22:32 12,1 C 11,1 C 10,6 C 96 % 1001,6 hPa 0,0 l/m 0 min 0 min 0 W/m 12,9 km/h (3 Bft) 97,87 %
10.11.2018 22:34 12,1 C 11,1 C 10,6 C 96 % 1001,7 hPa 0,0 l/m 0 min 0 min 0 W/m 12,9 km/h (3 Bft) 97,83 %
10.11.2018 22:36 12,1 C 11,1 C 10,6 C 96 % 1001,6 hPa 0,0 l/m 0 min 0 min 0 W/m 12,9 km/h (3 Bft) 98,31 %
10.11.2018 22:38 12,1 C 11,1 C 10,6 C 96 % 1001,5 hPa 0,0 l/m 0 min 0 min 0 W/m 19,3 km/h (3 Bft) 97,14 %
10.11.2018 22:40 12,1 C 11,1 C 10,6 C 96 % 1001,5 hPa 0,0 l/m 0 min 0 min 0 W/m 12,9 km/h (3 Bft) 97,87 %
10.11.2018 22:42 12,1 C 11,1 C 10,6 C 96 % 1001,5 hPa 0,0 l/m 0 min 0 min 0 W/m 12,9 km/h (3 Bft) 97,87 %
10.11.2018 22:44 12,1 C 11,1 C 10,6 C 96 % 1001,5 hPa 0,0 l/m 0 min 0 min 0 W/m 16,1 km/h (3 Bft) 97,87 %
10.11.2018 22:46 12,1 C 11,1 C 10,6 C 96 % 1001,5 hPa 0,0 l/m 0 min 0 min 0 W/m 12,9 km/h (3 Bft) 97,83 %
10.11.2018 22:48 12,1 C 11,1 C 10,6 C 96 % 1001,6 hPa 0,0 l/m 0 min 0 min 0 W/m 16,1 km/h (3 Bft) 97,87 %
10.11.2018 22:50 12,1 C 11,1 C 10,6 C 96 % 1001,5 hPa 0,0 l/m 0 min 2 min 0 W/m 12,9 km/h (3 Bft) 97,87 %
10.11.2018 22:52 12,1 C 11,1 C 10,6 C 96 % 1001,6 hPa 0,0 l/m 0 min 0 min 0 W/m 12,9 km/h (3 Bft) 95,74 %
10.11.2018 22:54 12,1 C 11,1 C 10,6 C 96 % 1001,6 hPa 0,0 l/m 0 min 0 min 0 W/m 12,9 km/h (3 Bft) 95,74 %
10.11.2018 22:56 12,1 C 10,6 C 10,6 C 96 % 1001,6 hPa 0,0 l/m 0 min 0 min 0 W/m 12,9 km/h (3 Bft) 97,83 %
10.11.2018 22:58 12,1 C 10,6 C 10,6 C 96 % 1001,6 hPa 0,0 l/m 0 min 0 min 0 W/m 12,9 km/h (3 Bft) 97,87 %
10.11.2018 23:00 12,1 C 10,6 C 10,6 C 96 % 1001,7 hPa 0,0 l/m 0 min 0 min 0 W/m 12,9 km/h (3 Bft) 97,87 %
10.11.2018 23:02 12,0 C 10,6 C 10,6 C 96 % 1001,7 hPa 0,0 l/m 0 min 0 min 0 W/m 12,9 km/h (3 Bft) 97,87 %
10.11.2018 23:04 12,0 C 10,6 C 10,6 C 96 % 1001,6 hPa 0,0 l/m 0 min 0 min 0 W/m 16,1 km/h (3 Bft) 97,87 %
10.11.2018 23:06 12,0 C 10,6 C 10,6 C 96 % 1001,6 hPa 0,0 l/m 0 min 0 min 0 W/m 9,7 km/h (2 Bft) 96,55 %
10.11.2018 23:08 12,0 C 10,6 C 10,6 C 96 % 1001,6 hPa 0,0 l/m 0 min 0 min 0 W/m 19,3 km/h (3 Bft) 97,14 %
10.11.2018 23:10 12,0 C 10,6 C 10,6 C 96 % 1001,7 hPa 0,0 l/m 0 min 0 min 0 W/m 12,9 km/h (3 Bft) 100,00 %
10.11.2018 23:12 11,9 C 10,6 C 10,6 C 96 % 1001,7 hPa 0,0 l/m 0 min 0 min 0 W/m 9,7 km/h (2 Bft) 100,00 %
10.11.2018 23:14 11,9 C 10,6 C 10,6 C 96 % 1001,6 hPa 0,0 l/m 0 min 0 min 0 W/m 12,9 km/h (3 Bft) 100,00 %
10.11.2018 23:16 11,9 C 10,6 C 10,6 C 96 % 1001,6 hPa 0,0 l/m 0 min 0 min 0 W/m 12,9 km/h (3 Bft) 97,87 %
10.11.2018 23:18 11,9 C 10,6 C 10,6 C 96 % 1001,6 hPa 0,0 l/m 0 min 0 min 0 W/m 12,9 km/h (3 Bft) 100,00 %
10.11.2018 23:20 11,9 C 10,6 C 10,6 C 96 % 1001,6 hPa 0,0 l/m 0 min 0 min 0 W/m 12,9 km/h (3 Bft) 100,00 %
10.11.2018 23:22 11,9 C 10,6 C 10,6 C 96 % 1001,7 hPa 0,0 l/m 0 min 0 min 0 W/m 22,5 km/h (4 Bft) 100,00 %
10.11.2018 23:24 11,9 C 10,6 C 10,6 C 96 % 1001,8 hPa 0,0 l/m 0 min 0 min 0 W/m 12,9 km/h (3 Bft) 100,00 %
10.11.2018 23:26 11,9 C 10,6 C 10,6 C 96 % 1001,9 hPa 0,0 l/m 0 min 0 min 0 W/m 9,7 km/h (2 Bft) 97,87 %
10.11.2018 23:28 11,8 C 10,6 C 10,6 C 96 % 1001,9 hPa 0,0 l/m 0 min 0 min 0 W/m 12,9 km/h (3 Bft) 100,00 %
10.11.2018 23:30 11,8 C 10,6 C 10,6 C 96 % 1001,9 hPa 0,0 l/m 0 min 0 min 0 W/m 16,1 km/h (3 Bft) 97,87 %
10.11.2018 23:32 11,8 C 10,6 C 10,6 C 96 % 1002,0 hPa 0,0 l/m 0 min 0 min 0 W/m 22,5 km/h (4 Bft) 100,00 %
10.11.2018 23:34 11,8 C 11,1 C 10,6 C 96 % 1001,8 hPa 0,0 l/m 0 min 0 min 0 W/m 22,5 km/h (4 Bft) 100,00 %
10.11.2018 23:36 11,8 C 10,6 C 10,6 C 96 % 1001,8 hPa 0,0 l/m 0 min 0 min 0 W/m 22,5 km/h (4 Bft) 100,00 %
10.11.2018 23:38 11,8 C 11,1 C 10,6 C 96 % 1001,9 hPa 0,0 l/m 0 min 0 min 0 W/m 12,9 km/h (3 Bft) 100,00 %
10.11.2018 23:40 11,8 C 11,1 C 10,6 C 96 % 1001,8 hPa 0,0 l/m 0 min 0 min 0 W/m 19,3 km/h (3 Bft) 97,87 %
10.11.2018 23:42 11,8 C 11,1 C 10,6 C 96 % 1001,9 hPa 0,0 l/m 0 min 0 min 0 W/m 22,5 km/h (4 Bft) 100,00 %
10.11.2018 23:44 11,8 C 11,1 C 10,6 C 96 % 1001,9 hPa 0,0 l/m 0 min 0 min 0 W/m 19,3 km/h (3 Bft) 100,00 %
10.11.2018 23:46 11,8 C 11,1 C 10,6 C 96 % 1001,9 hPa 0,0 l/m 0 min 0 min 0 W/m 16,1 km/h (3 Bft) 100,00 %
10.11.2018 23:48 11,8 C 11,1 C 10,6 C 96 % 1001,8 hPa 0,0 l/m 0 min 0 min 0 W/m 16,1 km/h (3 Bft) 97,87 %
10.11.2018 23:50 11,8 C 11,1 C 10,6 C 96 % 1001,8 hPa 0,0 l/m 0 min 0 min 0 W/m 22,5 km/h (4 Bft) 100,00 %
10.11.2018 23:52 11,8 C 11,1 C 10,6 C 96 % 1001,6 hPa 0,0 l/m 0 min 0 min 0 W/m 16,1 km/h (3 Bft) 100,00 %
10.11.2018 23:54 11,8 C 11,1 C 10,6 C 95 % 1001,5 hPa 0,0 l/m 0 min 0 min 0 W/m 12,9 km/h (3 Bft) 97,87 %
10.11.2018 23:56 11,8 C 11,1 C 10,6 C 95 % 1001,7 hPa 0,0 l/m 0 min 0 min 0 W/m 12,9 km/h (3 Bft) 100,00 %
10.11.2018 23:58 11,8 C 11,1 C 10,0 C 95 % 1001,8 hPa 0,0 l/m 0 min 0 min 0 W/m 16,1 km/h (3 Bft) 100,00 %
_ Min-Zeit 01:10 07:16 00:00 05:50 15:28 - - - - 17:38 08:40
Minimum _ 10,6 C 9,4 C 9,4 C 80 % 999,8 hPa - - - - 3,2 km/h (1 Bft) 86,11 %
_ Max-Zeit 12:02 11:32 05:12 14:52 00:00 06:30 00:00 12:08 13:56 05:40 00:38
Maximum _ 13,5 C 13,3 C 11,7 C 97 % 1005,1 hPa 0,2 l/m 0 min 4 min 102 W/m 45,1 km/h
O (6 Bft)
100,00 %
Durchschnitt _ 12,2 C 11,2 C 10,6 C 92 % 1001,4 hPa #5,6 l/m #0 min. #8:10 h 35 W/m 17,2 km/h (3 Bft) 97,36 %
© 2018 W. Hausmann